| time (UTC) | temp F | wind direction | speed MPH | gust MPH | rain 1hr in | rain 24hr in | rain mn in | humidity % | barometer mb |
| 20260906174428 | 83 | 41 | 4.0 | 10.0 | 0.00 | 0.00 | 0.00 | 40 | 1022.6 |
| 20260906174329 | 83 | 78 | 4.0 | 10.0 | 0.00 | 0.00 | 0.00 | 42 | 1022.6 |
| 20260906174322 | 83 | 66 | 4.0 | 10.0 | 0.00 | 0.00 | 0.00 | 42 | 1022.6 |
| 20260906174229 | 83 | 22 | 4.0 | 8.0 | 0.00 | 0.00 | 0.00 | 45 | 1022.6 |
| 20260906174125 | 83 | 33 | 3.0 | 8.0 | 0.00 | 0.00 | 0.00 | 44 | 1022.6 |
| 20260906174030 | 83 | 46 | 3.0 | 8.0 | 0.00 | 0.00 | 0.00 | 44 | 1022.8 |
| 20260906173824 | 83 | 355 | 3.0 | 8.0 | 0.00 | 0.00 | 0.00 | 44 | 1022.9 |
| 20260906173724 | 83 | 22 | 3.0 | 8.0 | 0.00 | 0.00 | 0.00 | 44 | 1022.8 |
| 20260906173624 | 83 | 5 | 3.0 | 8.0 | 0.00 | 0.00 | 0.00 | 44 | 1022.9 |
| 20260906173524 | 83 | 0 | 3.0 | 8.0 | 0.00 | 0.00 | 0.00 | 42 | 1022.9 |
| 20260906173424 | 83 | 328 | 4.0 | 8.0 | 0.00 | 0.00 | 0.00 | 43 | 1022.9 |
| 20260906173324 | 83 | 45 | 4.0 | 8.0 | 0.00 | 0.00 | 0.00 | 43 | 1022.9 |
| 20260906173225 | 83 | 20 | 4.0 | 8.0 | 0.00 | 0.00 | 0.00 | 47 | 1023.0 |
| 20260906173124 | 82 | 44 | 4.0 | 8.0 | 0.00 | 0.00 | 0.00 | 46 | 1023.0 |
| 20260906173025 | 82 | 24 | 4.0 | 8.0 | 0.00 | 0.00 | 0.00 | 46 | 1023.0 |
| 20260906172923 | 82 | 350 | 4.0 | 8.0 | 0.00 | 0.00 | 0.00 | 46 | 1023.0 |
| 20260906172824 | 82 | 0 | 4.0 | 8.0 | 0.00 | 0.00 | 0.00 | 45 | 1023.0 |
| 20260906172731 | 82 | 348 | 4.0 | 8.0 | 0.00 | 0.00 | 0.00 | 44 | 1023.0 |
| 20260906172524 | 81 | 101 | 4.0 | 8.0 | 0.00 | 0.00 | 0.00 | 45 | 1023.0 |
| 20260906172424 | 81 | 44 | 4.0 | 8.0 | 0.00 | 0.00 | 0.00 | 44 | 1023.0 |
| 20260906172324 | 81 | 52 | 4.0 | 8.0 | 0.00 | 0.00 | 0.00 | 45 | 1023.0 |
| 20260906172220 | 81 | 61 | 5.0 | 8.0 | 0.00 | 0.00 | 0.00 | 45 | 1023.1 |
| 20260906172120 | 81 | 80 | 5.0 | 10.0 | 0.00 | 0.00 | 0.00 | 45 | 1023.0 |
| 20260906172021 | 81 | 73 | 5.0 | 11.0 | 0.00 | 0.00 | 0.00 | 46 | 1023.1 |
| 20260906171931 | 81 | 104 | 6.0 | 11.0 | 0.00 | 0.00 | 0.00 | 46 | 1023.1 |
| 20260906171820 | 80 | 80 | 5.0 | 11.0 | 0.00 | 0.00 | 0.00 | 45 | 1023.0 |
| 20260906171720 | 80 | 80 | 6.0 | 11.0 | 0.00 | 0.00 | 0.00 | 46 | 1023.1 |
| 20260906171620 | 80 | 82 | 5.0 | 11.0 | 0.00 | 0.00 | 0.00 | 46 | 1023.1 |
| 20260906171520 | 80 | 80 | 5.0 | 11.0 | 0.00 | 0.00 | 0.00 | 47 | 1023.1 |
| 20260906171420 | 80 | 88 | 5.0 | 11.0 | 0.00 | 0.00 | 0.00 | 49 | 1023.1 |
| 20260906171321 | 80 | 71 | 5.0 | 11.0 | 0.00 | 0.00 | 0.00 | 46 | 1023.1 |
| 20260906171219 | 80 | 5 | 5.0 | 11.0 | 0.00 | 0.00 | 0.00 | 45 | 1023.1 |
| 20260906171120 | 81 | 36 | 4.0 | 11.0 | 0.00 | 0.00 | 0.00 | 45 | 1023.1 |
| 20260906171027 | 81 | 42 | 4.0 | 9.0 | 0.00 | 0.00 | 0.00 | 44 | 1023.1 |
| 20260906170820 | 81 | 155 | 4.0 | 7.0 | 0.00 | 0.00 | 0.00 | 45 | 1023.2 |
| 20260906170720 | 81 | 140 | 3.0 | 7.0 | 0.00 | 0.00 | 0.00 | 45 | 1023.2 |
| 20260906170620 | 80 | 45 | 3.0 | 7.0 | 0.00 | 0.00 | 0.00 | 44 | 1023.2 |
| 20260906170520 | 80 | 76 | 3.0 | 7.0 | 0.00 | 0.00 | 0.00 | 46 | 1023.2 |
| 20260906170420 | 80 | 119 | 3.0 | 7.0 | 0.00 | 0.00 | 0.00 | 45 | 1023.4 |
| 20260906170320 | 80 | 107 | 3.0 | 7.0 | 0.00 | 0.00 | 0.00 | 45 | 1023.4 |
| 20260906170316 | 80 | 111 | 3.0 | 7.0 | 0.00 | 0.00 | 0.00 | 45 | 1023.4 |
| 20260906170216 | 80 | 96 | 3.0 | 7.0 | 0.00 | 0.00 | 0.00 | 48 | 1023.4 |
| 20260906170116 | 80 | 58 | 3.0 | 6.0 | 0.00 | 0.00 | 0.00 | 50 | 1023.4 |
| 20260906170022 | 80 | 107 | 3.0 | 6.0 | 0.00 | 0.00 | 0.00 | 46 | 1023.4 |
| 20260906165820 | 79 | 125 | 2.0 | 6.0 | 0.00 | 0.00 | 0.00 | 46 | 1023.5 |
| 20260906165816 | 79 | 119 | 2.0 | 6.0 | 0.00 | 0.00 | 0.00 | 46 | 1023.5 |
| 20260906165716 | 79 | 36 | 3.0 | 6.0 | 0.00 | 0.00 | 0.00 | 47 | 1023.5 |
| 20260906165623 | 79 | 58 | 3.0 | 6.0 | 0.00 | 0.00 | 0.00 | 46 | 1023.5 |
| 20260906165427 | 79 | 56 | 3.0 | 6.0 | 0.00 | 0.00 | 0.00 | 45 | 1023.5 |
| 20260906165316 | 79 | 53 | 3.0 | 6.0 | 0.00 | 0.00 | 0.00 | 46 | 1023.5 |
| 20260906165216 | 79 | 33 | 2.0 | 6.0 | 0.00 | 0.00 | 0.00 | 46 | 1023.5 |
| 20260906165116 | 79 | 69 | 3.0 | 6.0 | 0.00 | 0.00 | 0.00 | 47 | 1023.5 |
| 20260906165016 | 79 | 335 | 3.0 | 6.0 | 0.00 | 0.00 | 0.00 | 47 | 1023.5 |
| 20260906164916 | 78 | 335 | 3.0 | 6.0 | 0.00 | 0.00 | 0.00 | 45 | 1023.5 |
| 20260906164816 | 78 | 335 | 4.0 | 6.0 | 0.00 | 0.00 | 0.00 | 45 | 1023.5 |
| 20260906164716 | 78 | 42 | 4.0 | 8.0 | 0.00 | 0.00 | 0.00 | 45 | 1023.5 |
| 20260906164615 | 78 | 40 | 3.0 | 8.0 | 0.00 | 0.00 | 0.00 | 45 | 1023.5 |
| 20260906164516 | 78 | 34 | 3.0 | 8.0 | 0.00 | 0.00 | 0.00 | 48 | 1023.5 |
| 20260906164424 | 78 | 23 | 3.0 | 8.0 | 0.00 | 0.00 | 0.00 | 46 | 1023.5 |
| 20260906164312 | 78 | 32 | 3.0 | 8.0 | 0.00 | 0.00 | 0.00 | 48 | 1023.5 |
| 20260906164212 | 78 | 67 | 3.0 | 8.0 | 0.00 | 0.00 | 0.00 | 47 | 1023.5 |
| 20260906164125 | 78 | 46 | 3.0 | 8.0 | 0.00 | 0.00 | 0.00 | 46 | 1023.5 |
| 20260906163813 | 79 | 42 | 2.0 | 8.0 | 0.00 | 0.00 | 0.00 | 46 | 1023.5 |
| 20260906163711 | 79 | 44 | 2.0 | 6.0 | 0.00 | 0.00 | 0.00 | 46 | 1023.5 |
| 20260906163612 | 79 | 68 | 2.0 | 6.0 | 0.00 | 0.00 | 0.00 | 46 | 1023.5 |
| 20260906163512 | 79 | 96 | 2.0 | 4.0 | 0.00 | 0.00 | 0.00 | 48 | 1023.5 |
| 20260906163411 | 78 | 156 | 2.0 | 4.0 | 0.00 | 0.00 | 0.00 | 48 | 1023.4 |
| 20260906163318 | 78 | 158 | 2.0 | 3.0 | 0.00 | 0.00 | 0.00 | 48 | 1023.5 |
| 20260906163313 | 78 | 131 | 2.0 | 3.0 | 0.00 | 0.00 | 0.00 | 48 | 1023.5 |
| 20260906163226 | 78 | 141 | 2.0 | 6.0 | 0.00 | 0.00 | 0.00 | 49 | 1023.4 |
| 20260906162912 | 77 | 63 | 3.0 | 7.0 | 0.00 | 0.00 | 0.00 | 53 | 1023.4 |
| 20260906162817 | 77 | 63 | 3.0 | 7.0 | 0.00 | 0.00 | 0.00 | 50 | 1023.4 |
| 20260906162813 | 77 | 62 | 3.0 | 7.0 | 0.00 | 0.00 | 0.00 | 52 | 1023.4 |
| 20260906162712 | 77 | 54 | 3.0 | 7.0 | 0.00 | 0.00 | 0.00 | 49 | 1023.4 |
| 20260906162612 | 77 | 42 | 3.0 | 7.0 | 0.00 | 0.00 | 0.00 | 49 | 1023.5 |
| 20260906162506 | 77 | 57 | 3.0 | 7.0 | 0.00 | 0.00 | 0.00 | 49 | 1023.4 |
| 20260906162407 | 77 | 94 | 3.0 | 7.0 | 0.00 | 0.00 | 0.00 | 49 | 1023.4 |
| 20260906162315 | 77 | 95 | 3.0 | 7.0 | 0.00 | 0.00 | 0.00 | 49 | 1023.4 |
| 20260906162306 | 77 | 104 | 3.0 | 7.0 | 0.00 | 0.00 | 0.00 | 50 | 1023.4 |
| 20260906162206 | 77 | 79 | 2.0 | 7.0 | 0.00 | 0.00 | 0.00 | 51 | 1023.4 |
| 20260906162104 | 77 | 74 | 2.0 | 5.0 | 0.00 | 0.00 | 0.00 | 50 | 1023.4 |
| 20260906162002 | 77 | 32 | 3.0 | 6.0 | 0.00 | 0.00 | 0.00 | 50 | 1023.4 |
| 20260906161902 | 77 | 13 | 3.0 | 6.0 | 0.00 | 0.00 | 0.00 | 50 | 1023.2 |
| 20260906161813 | 77 | 17 | 3.0 | 6.0 | 0.00 | 0.00 | 0.00 | 50 | 1023.4 |
| 20260906161800 | 77 | 44 | 3.0 | 6.0 | 0.00 | 0.00 | 0.00 | 50 | 1023.4 |
| 20260906161659 | 77 | 23 | 3.0 | 6.0 | 0.00 | 0.00 | 0.00 | 51 | 1023.2 |
| 20260906161557 | 77 | 55 | 3.0 | 6.0 | 0.00 | 0.00 | 0.00 | 50 | 1023.4 |
| 20260906161454 | 76 | 72 | 3.0 | 6.0 | 0.00 | 0.00 | 0.00 | 50 | 1023.4 |
| 20260906161404 | 76 | 79 | 3.0 | 6.0 | 0.00 | 0.00 | 0.00 | 51 | 1023.4 |
| 20260906161357 | 76 | 80 | 3.0 | 6.0 | 0.00 | 0.00 | 0.00 | 50 | 1023.2 |
| 20260906161152 | 76 | 80 | 3.0 | 6.0 | 0.00 | 0.00 | 0.00 | 50 | 1023.4 |
| 20260906161051 | 77 | 67 | 3.0 | 6.0 | 0.00 | 0.00 | 0.00 | 50 | 1023.4 |
| 20260906160946 | 77 | 97 | 3.0 | 6.0 | 0.00 | 0.00 | 0.00 | 51 | 1023.2 |
| 20260906160856 | 76 | 40 | 3.0 | 6.0 | 0.00 | 0.00 | 0.00 | 54 | 1023.2 |
| 20260906160850 | 76 | 347 | 3.0 | 6.0 | 0.00 | 0.00 | 0.00 | 54 | 1023.2 |
| 20260906160650 | 76 | 64 | 3.0 | 5.0 | 0.00 | 0.00 | 0.00 | 54 | 1023.2 |
| 20260906160440 | 75 | 134 | 3.0 | 6.0 | 0.00 | 0.00 | 0.00 | 56 | 1023.2 |
| 20260906160339 | 75 | 79 | 3.0 | 6.0 | 0.00 | 0.00 | 0.00 | 55 | 1023.2 |
| 20260906160310 | 75 | 101 | 3.0 | 6.0 | 0.00 | 0.00 | 0.00 | 57 | 1023.2 |
| 20260906160245 | 75 | 103 | 3.0 | 6.0 | 0.00 | 0.00 | 0.00 | 57 | 1023.2 |
| 20260906160035 | 75 | 83 | 4.0 | 6.0 | 0.00 | 0.00 | 0.00 | 57 | 1023.2 |
| 20260906155936 | 75 | 67 | 4.0 | 6.0 | 0.00 | 0.00 | 0.00 | 57 | 1023.2 |
| 20260906155808 | 74 | 18 | 4.0 | 6.0 | 0.00 | 0.00 | 0.00 | 56 | 1023.2 |
| 20260906155730 | 74 | 32 | 4.0 | 6.0 | 0.00 | 0.00 | 0.00 | 56 | 1023.2 |
| 20260906155630 | 74 | 57 | 4.0 | 8.0 | 0.00 | 0.00 | 0.00 | 58 | 1023.2 |
| 20260906155528 | 74 | 17 | 4.0 | 8.0 | 0.00 | 0.00 | 0.00 | 56 | 1023.2 |
| 20260906155427 | 74 | 40 | 4.0 | 8.0 | 0.00 | 0.00 | 0.00 | 56 | 1023.2 |
| 20260906155326 | 74 | 63 | 4.0 | 8.0 | 0.00 | 0.00 | 0.00 | 57 | 1023.2 |
| 20260906155307 | 74 | 68 | 4.0 | 8.0 | 0.00 | 0.00 | 0.00 | 57 | 1023.2 |
| 20260906155226 | 74 | 55 | 5.0 | 8.0 | 0.00 | 0.00 | 0.00 | 57 | 1023.2 |
| 20260906155124 | 74 | 42 | 5.0 | 8.0 | 0.00 | 0.00 | 0.00 | 59 | 1023.2 |
| 20260906155021 | 74 | 71 | 5.0 | 9.0 | 0.00 | 0.00 | 0.00 | 59 | 1023.2 |
| 20260906154918 | 74 | 84 | 5.0 | 9.0 | 0.00 | 0.00 | 0.00 | 59 | 1023.2 |
| 20260906154816 | 74 | 54 | 5.0 | 10.0 | 0.00 | 0.00 | 0.00 | 59 | 1023.2 |
| 20260906154805 | 74 | 60 | 5.0 | 10.0 | 0.00 | 0.00 | 0.00 | 59 | 1023.2 |
| 20260906154716 | 74 | 48 | 5.0 | 10.0 | 0.00 | 0.00 | 0.00 | 59 | 1023.2 |
| 20260906154616 | 74 | 71 | 5.0 | 10.0 | 0.00 | 0.00 | 0.00 | 59 | 1023.2 |
| 20260906154525 | 74 | 34 | 4.0 | 10.0 | 0.00 | 0.00 | 0.00 | 60 | 1023.1 |
| 20260906154305 | 73 | 58 | 5.0 | 10.0 | 0.00 | 0.00 | 0.00 | 59 | 1023.1 |
| 20260906154218 | 73 | 70 | 4.0 | 10.0 | 0.00 | 0.00 | 0.00 | 60 | 1023.1 |
| 20260906154010 | 73 | 61 | 4.0 | 10.0 | 0.00 | 0.00 | 0.00 | 60 | 1023.2 |
| 20260906153811 | 73 | 26 | 3.0 | 8.0 | 0.00 | 0.00 | 0.00 | 60 | 1023.1 |
| 20260906153807 | 73 | 60 | 3.0 | 8.0 | 0.00 | 0.00 | 0.00 | 60 | 1023.1 |
| 20260906153605 | 73 | 57 | 3.0 | 8.0 | 0.00 | 0.00 | 0.00 | 61 | 1023.1 |
| 20260906153353 | 73 | 47 | 3.0 | 8.0 | 0.00 | 0.00 | 0.00 | 61 | 1023.2 |
| 20260906153305 | 72 | 36 | 3.0 | 7.0 | 0.00 | 0.00 | 0.00 | 63 | 1023.1 |
| 20260906153252 | 72 | 82 | 3.0 | 7.0 | 0.00 | 0.00 | 0.00 | 63 | 1023.1 |
| 20260906153159 | 72 | 65 | 3.0 | 8.0 | 0.00 | 0.00 | 0.00 | 65 | 1023.1 |
| 20260906152949 | 72 | 355 | 3.0 | 8.0 | 0.00 | 0.00 | 0.00 | 64 | 1023.1 |
| 20260906152845 | 71 | 30 | 4.0 | 8.0 | 0.00 | 0.00 | 0.00 | 65 | 1023.1 |
| 20260906152805 | 71 | 344 | 4.0 | 8.0 | 0.00 | 0.00 | 0.00 | 64 | 1023.1 |
| 20260906152746 | 71 | 337 | 4.0 | 8.0 | 0.00 | 0.00 | 0.00 | 64 | 1023.1 |
| 20260906152646 | 71 | 69 | 4.0 | 8.0 | 0.00 | 0.00 | 0.00 | 65 | 1023.1 |
| 20260906152546 | 71 | 44 | 4.0 | 8.0 | 0.00 | 0.00 | 0.00 | 65 | 1023.1 |
| 20260906152443 | 71 | 40 | 4.0 | 8.0 | 0.00 | 0.00 | 0.00 | 65 | 1023.1 |
| 20260906152405 | 70 | 44 | 4.0 | 8.0 | 0.00 | 0.00 | 0.00 | 66 | 1023.1 |
| 20260906152238 | 70 | 74 | 4.0 | 8.0 | 0.00 | 0.00 | 0.00 | 66 | 1023.1 |
| 20260906152137 | 70 | 59 | 4.0 | 7.0 | 0.00 | 0.00 | 0.00 | 66 | 1023.1 |
| 20260906152045 | 70 | 341 | 5.0 | 7.0 | 0.00 | 0.00 | 0.00 | 66 | 1023.1 |
| 20260906151844 | 70 | 32 | 4.0 | 7.0 | 0.00 | 0.00 | 0.00 | 66 | 1023.1 |
| 20260906151837 | 70 | 0 | 4.0 | 7.0 | 0.00 | 0.00 | 0.00 | 66 | 1023.1 |
| 20260906151631 | 70 | 36 | 4.0 | 7.0 | 0.00 | 0.00 | 0.00 | 67 | 1023.1 |
| 20260906151532 | 70 | 59 | 4.0 | 7.0 | 0.00 | 0.00 | 0.00 | 67 | 1023.1 |
| 20260906151431 | 70 | 44 | 3.0 | 7.0 | 0.00 | 0.00 | 0.00 | 68 | 1023.1 |
| 20260906151325 | 69 | 37 | 3.0 | 7.0 | 0.00 | 0.00 | 0.00 | 68 | 1023.1 |
| 20260906151247 | 69 | 63 | 3.0 | 7.0 | 0.00 | 0.00 | 0.00 | 69 | 1023.1 |
| 20260906151225 | 69 | 39 | 3.0 | 7.0 | 0.00 | 0.00 | 0.00 | 69 | 1023.1 |
| 20260906151126 | 69 | 11 | 3.0 | 7.0 | 0.00 | 0.00 | 0.00 | 69 | 1023.1 |
| 20260906151040 | 69 | 63 | 2.0 | 5.0 | 0.00 | 0.00 | 0.00 | 69 | 1023.2 |
| 20260906150740 | 69 | 69 | 2.0 | 5.0 | 0.00 | 0.00 | 0.00 | 69 | 1023.2 |
| 20260906150722 | 69 | 54 | 2.0 | 5.0 | 0.00 | 0.00 | 0.00 | 69 | 1023.2 |
| 20260906150621 | 69 | 46 | 2.0 | 4.0 | 0.00 | 0.00 | 0.00 | 69 | 1023.1 |
| 20260906150522 | 69 | 331 | 2.0 | 5.0 | 0.00 | 0.00 | 0.00 | 69 | 1023.2 |
| 20260906150419 | 69 | 330 | 3.0 | 5.0 | 0.00 | 0.00 | 0.00 | 70 | 1023.2 |
| 20260906150314 | 69 | 351 | 3.0 | 5.0 | 0.00 | 0.00 | 0.00 | 70 | 1023.2 |
| 20260906150235 | 69 | 300 | 3.0 | 5.0 | 0.00 | 0.00 | 0.00 | 70 | 1023.2 |
| 20260906150213 | 69 | 292 | 3.0 | 5.0 | 0.00 | 0.00 | 0.00 | 70 | 1023.2 |
| 20260906150114 | 69 | 292 | 3.0 | 5.0 | 0.00 | 0.00 | 0.00 | 70 | 1023.2 |
| 20260906150014 | 69 | 0 | 3.0 | 5.0 | 0.00 | 0.00 | 0.00 | 70 | 1023.4 |
| 20260906145914 | 69 | 45 | 2.0 | 5.0 | 0.00 | 0.00 | 0.00 | 70 | 1023.4 |
| 20260906145819 | 69 | 27 | 2.0 | 5.0 | 0.00 | 0.00 | 0.00 | 70 | 1023.4 |
| 20260906145812 | 69 | 17 | 2.0 | 5.0 | 0.00 | 0.00 | 0.00 | 70 | 1023.4 |
| 20260906145608 | 68 | 17 | 2.0 | 5.0 | 0.00 | 0.00 | 0.00 | 71 | 1023.2 |
| 20260906145514 | 68 | 36 | 2.0 | 5.0 | 0.00 | 0.00 | 0.00 | 71 | 1023.4 |
| 20260906145308 | 68 | 333 | 2.0 | 5.0 | 0.00 | 0.00 | 0.00 | 72 | 1023.4 |
| 20260906145223 | 68 | 319 | 2.0 | 5.0 | 0.00 | 0.00 | 0.00 | 72 | 1023.4 |
| 20260906145206 | 68 | 355 | 2.0 | 5.0 | 0.00 | 0.00 | 0.00 | 72 | 1023.4 |
| 20260906145105 | 68 | 351 | 2.0 | 5.0 | 0.00 | 0.00 | 0.00 | 72 | 1023.2 |
| 20260906145003 | 68 | 38 | 2.0 | 5.0 | 0.00 | 0.00 | 0.00 | 73 | 1023.2 |
| 20260906144901 | 68 | 38 | 2.0 | 5.0 | 0.00 | 0.00 | 0.00 | 73 | 1023.2 |
| 20260906144802 | 68 | 38 | 2.0 | 5.0 | 0.00 | 0.00 | 0.00 | 73 | 1023.2 |
| 20260906144716 | 68 | 32 | 3.0 | 5.0 | 0.00 | 0.00 | 0.00 | 73 | 1023.2 |
| 20260906144700 | 68 | 32 | 3.0 | 5.0 | 0.00 | 0.00 | 0.00 | 73 | 1023.2 |
| 20260906144559 | 67 | 51 | 2.0 | 5.0 | 0.00 | 0.00 | 0.00 | 74 | 1023.1 |
| 20260906144458 | 67 | 0 | 2.0 | 5.0 | 0.00 | 0.00 | 0.00 | 73 | 1023.2 |
| 20260906144355 | 67 | 47 | 2.0 | 5.0 | 0.00 | 0.00 | 0.00 | 73 | 1023.1 |
| 20260906144317 | 67 | 28 | 2.0 | 5.0 | 0.00 | 0.00 | 0.00 | 73 | 1023.2 |
| 20260906144154 | 67 | 39 | 2.0 | 5.0 | 0.00 | 0.00 | 0.00 | 74 | 1023.2 |
| 20260906144058 | 67 | 39 | 3.0 | 5.0 | 0.00 | 0.00 | 0.00 | 74 | 1023.4 |
| 20260906143850 | 67 | 39 | 3.0 | 6.0 | 0.00 | 0.00 | 0.00 | 75 | 1023.2 |
| 20260906143750 | 67 | 340 | 3.0 | 6.0 | 0.00 | 0.00 | 0.00 | 75 | 1023.4 |
| 20260906143705 | 67 | 321 | 3.0 | 6.0 | 0.00 | 0.00 | 0.00 | 75 | 1023.4 |
| 20260906143648 | 67 | 30 | 3.0 | 6.0 | 0.00 | 0.00 | 0.00 | 75 | 1023.4 |
| 20260906143547 | 67 | 355 | 3.0 | 6.0 | 0.00 | 0.00 | 0.00 | 75 | 1023.2 |
| 20260906143445 | 67 | 355 | 3.0 | 6.0 | 0.00 | 0.00 | 0.00 | 74 | 1023.1 |
| 20260906143345 | 67 | 331 | 3.0 | 6.0 | 0.00 | 0.00 | 0.00 | 74 | 1023.1 |
| 20260906143159 | 67 | 0 | 3.0 | 6.0 | 0.00 | 0.00 | 0.00 | 74 | 1023.2 |
| 20260906143138 | 67 | 17 | 3.0 | 6.0 | 0.00 | 0.00 | 0.00 | 74 | 1023.1 |
| 20260906143038 | 67 | 344 | 3.0 | 6.0 | 0.00 | 0.00 | 0.00 | 75 | 1023.1 |
| 20260906142937 | 67 | 355 | 3.0 | 6.0 | 0.00 | 0.00 | 0.00 | 75 | 1023.2 |
| 20260906142838 | 67 | 355 | 3.0 | 6.0 | 0.00 | 0.00 | 0.00 | 75 | 1023.2 |
| 20260906142759 | 67 | 313 | 3.0 | 6.0 | 0.00 | 0.00 | 0.00 | 75 | 1023.2 |
| 20260906142636 | 67 | 5 | 3.0 | 6.0 | 0.00 | 0.00 | 0.00 | 75 | 1023.2 |
| 20260906142535 | 67 | 5 | 3.0 | 6.0 | 0.00 | 0.00 | 0.00 | 75 | 1023.2 |
| 20260906142434 | 67 | 15 | 3.0 | 6.0 | 0.00 | 0.00 | 0.00 | 76 | 1023.2 |
| 20260906142331 | 66 | 23 | 3.0 | 6.0 | 0.00 | 0.00 | 0.00 | 76 | 1023.2 |
| 20260906142258 | 66 | 344 | 2.0 | 6.0 | 0.00 | 0.00 | 0.00 | 76 | 1023.2 |
| 20260906142126 | 66 | 348 | 2.0 | 6.0 | 0.00 | 0.00 | 0.00 | 76 | 1023.2 |
| 20260906142026 | 66 | 341 | 2.0 | 5.0 | 0.00 | 0.00 | 0.00 | 76 | 1023.2 |
| 20260906141926 | 66 | 324 | 2.0 | 5.0 | 0.00 | 0.00 | 0.00 | 76 | 1023.2 |
| 20260906141825 | 66 | 315 | 2.0 | 5.0 | 0.00 | 0.00 | 0.00 | 75 | 1023.2 |
| 20260906141735 | 66 | 314 | 2.0 | 5.0 | 0.00 | 0.00 | 0.00 | 76 | 1023.4 |
| 20260906141728 | 66 | 314 | 2.0 | 5.0 | 0.00 | 0.00 | 0.00 | 76 | 1023.4 |
| 20260906141524 | 66 | 355 | 2.0 | 5.0 | 0.00 | 0.00 | 0.00 | 76 | 1023.2 |
| 20260906141422 | 66 | 34 | 2.0 | 5.0 | 0.00 | 0.00 | 0.00 | 76 | 1023.2 |
| 20260906141319 | 66 | 34 | 2.0 | 5.0 | 0.00 | 0.00 | 0.00 | 76 | 1023.1 |
| 20260906141213 | 66 | 34 | 2.0 | 5.0 | 0.00 | 0.00 | 0.00 | 76 | 1023.1 |
| 20260906141149 | 65 | 34 | 2.0 | 5.0 | 0.00 | 0.00 | 0.00 | 76 | 1023.1 |
| 20260906141113 | 65 | 34 | 2.0 | 5.0 | 0.00 | 0.00 | 0.00 | 76 | 1023.1 |
| 20260906141014 | 65 | 34 | 2.0 | 5.0 | 0.00 | 0.00 | 0.00 | 76 | 1023.1 |
| 20260906140914 | 65 | 34 | 2.0 | 5.0 | 0.00 | 0.00 | 0.00 | 76 | 1023.1 |
| 20260906140813 | 65 | 34 | 2.0 | 5.0 | 0.00 | 0.00 | 0.00 | 76 | 1023.1 |
| 20260906140718 | 65 | 37 | 2.0 | 5.0 | 0.00 | 0.00 | 0.00 | 76 | 1023.2 |
| 20260906140711 | 65 | 344 | 2.0 | 5.0 | 0.00 | 0.00 | 0.00 | 76 | 1023.2 |
| 20260906140508 | 65 | 344 | 1.0 | 5.0 | 0.00 | 0.00 | 0.00 | 77 | 1023.2 |
| 20260906140408 | 65 | 342 | 1.0 | 5.0 | 0.00 | 0.00 | 0.00 | 77 | 1023.2 |
| 20260906140307 | 65 | 305 | 1.0 | 4.0 | 0.00 | 0.00 | 0.00 | 77 | 1023.4 |
| 20260906140145 | 65 | 305 | 2.0 | 4.0 | 0.00 | 0.00 | 0.00 | 77 | 1023.2 |
| 20260906140002 | 65 | 305 | 2.0 | 5.0 | 0.00 | 0.00 | 0.00 | 77 | 1023.2 |
| 20260906135859 | 65 | 305 | 3.0 | 6.0 | 0.00 | 0.00 | 0.00 | 77 | 1023.2 |
| 20260906135759 | 65 | 305 | 3.0 | 6.0 | 0.00 | 0.00 | 0.00 | 77 | 1023.2 |
| 20260906135752 | 65 | 305 | 3.0 | 6.0 | 0.00 | 0.00 | 0.00 | 77 | 1023.2 |
| 20260906135556 | 65 | 305 | 3.0 | 7.0 | 0.00 | 0.00 | 0.00 | 77 | 1023.2 |
| 20260906135455 | 65 | 305 | 3.0 | 7.0 | 0.00 | 0.00 | 0.00 | 77 | 1023.2 |
| 20260906135401 | 65 | 305 | 3.0 | 7.0 | 0.00 | 0.00 | 0.00 | 77 | 1023.2 |
| 20260906135150 | 64 | 327 | 3.0 | 7.0 | 0.00 | 0.00 | 0.00 | 77 | 1023.1 |
| 20260906135143 | 64 | 326 | 3.0 | 7.0 | 0.00 | 0.00 | 0.00 | 77 | 1023.1 |
| 20260906135048 | 64 | 318 | 3.0 | 7.0 | 0.00 | 0.00 | 0.00 | 77 | 1023.1 |
| 20260906134947 | 64 | 321 | 2.0 | 7.0 | 0.00 | 0.00 | 0.00 | 77 | 1023.2 |
| 20260906134847 | 64 | 305 | 3.0 | 7.0 | 0.00 | 0.00 | 0.00 | 77 | 1023.2 |
| 20260906134747 | 64 | 305 | 3.0 | 7.0 | 0.00 | 0.00 | 0.00 | 77 | 1023.1 |
| 20260906134642 | 64 | 300 | 2.0 | 7.0 | 0.00 | 0.00 | 0.00 | 77 | 1023.1 |
| 20260906134548 | 64 | 336 | 2.0 | 7.0 | 0.00 | 0.00 | 0.00 | 76 | 1023.2 |
| 20260906134342 | 64 | 336 | 3.0 | 7.0 | 0.00 | 0.00 | 0.00 | 76 | 1023.1 |
| 20260906134241 | 64 | 5 | 3.0 | 7.0 | 0.00 | 0.00 | 0.00 | 76 | 1023.1 |
| 20260906134141 | 64 | 321 | 3.0 | 8.0 | 0.00 | 0.00 | 0.00 | 77 | 1023.1 |
| 20260906134136 | 64 | 355 | 4.0 | 8.0 | 0.00 | 0.00 | 0.00 | 77 | 1023.1 |
| 20260906134036 | 64 | 321 | 4.0 | 8.0 | 0.00 | 0.00 | 0.00 | 77 | 1023.1 |
| 20260906133935 | 64 | 329 | 4.0 | 8.0 | 0.00 | 0.00 | 0.00 | 77 | 1023.0 |
| 20260906133841 | 64 | 309 | 4.0 | 8.0 | 0.00 | 0.00 | 0.00 | 77 | 1023.0 |
| 20260906133642 | 64 | 298 | 5.0 | 8.0 | 0.00 | 0.00 | 0.00 | 77 | 1023.1 |
| 20260906133629 | 64 | 336 | 5.0 | 8.0 | 0.00 | 0.00 | 0.00 | 77 | 1023.0 |
| 20260906133530 | 64 | 268 | 5.0 | 8.0 | 0.00 | 0.00 | 0.00 | 77 | 1023.0 |
| 20260906133430 | 64 | 304 | 5.0 | 8.0 | 0.00 | 0.00 | 0.00 | 77 | 1023.0 |
| 20260906133330 | 63 | 329 | 5.0 | 8.0 | 0.00 | 0.00 | 0.00 | 77 | 1022.9 |
| 20260906133229 | 63 | 317 | 5.0 | 8.0 | 0.00 | 0.00 | 0.00 | 77 | 1023.0 |
| 20260906133141 | 63 | 304 | 5.0 | 8.0 | 0.00 | 0.00 | 0.00 | 77 | 1023.0 |
| 20260906133123 | 63 | 294 | 5.0 | 8.0 | 0.00 | 0.00 | 0.00 | 76 | 1023.0 |
| 20260906133023 | 63 | 304 | 4.0 | 8.0 | 0.00 | 0.00 | 0.00 | 76 | 1023.0 |
| 20260906132924 | 63 | 298 | 4.0 | 8.0 | 0.00 | 0.00 | 0.00 | 76 | 1023.0 |
| 20260906132830 | 63 | 321 | 4.0 | 8.0 | 0.00 | 0.00 | 0.00 | 76 | 1023.0 |
| 20260906132642 | 63 | 324 | 4.0 | 7.0 | 0.00 | 0.00 | 0.00 | 75 | 1023.0 |
| 20260906132619 | 63 | 327 | 4.0 | 7.0 | 0.00 | 0.00 | 0.00 | 75 | 1023.1 |
| 20260906132518 | 63 | 323 | 4.0 | 7.0 | 0.00 | 0.00 | 0.00 | 76 | 1023.0 |
| 20260906132418 | 62 | 307 | 4.0 | 7.0 | 0.00 | 0.00 | 0.00 | 76 | 1023.0 |
| 20260906132318 | 62 | 331 | 4.0 | 7.0 | 0.00 | 0.00 | 0.00 | 75 | 1023.0 |
| 20260906132228 | 62 | 317 | 4.0 | 7.0 | 0.00 | 0.00 | 0.00 | 75 | 1023.0 |
| 20260906132222 | 62 | 311 | 4.0 | 7.0 | 0.00 | 0.00 | 0.00 | 75 | 1023.0 |
| 20260906132016 | 62 | 293 | 4.0 | 7.0 | 0.00 | 0.00 | 0.00 | 75 | 1023.0 |
| 20260906131914 | 62 | 292 | 4.0 | 7.0 | 0.00 | 0.00 | 0.00 | 75 | 1023.0 |
| 20260906131814 | 62 | 313 | 4.0 | 7.0 | 0.00 | 0.00 | 0.00 | 75 | 1023.0 |
| 20260906131711 | 62 | 319 | 4.0 | 7.0 | 0.00 | 0.00 | 0.00 | 75 | 1022.9 |
| 20260906131641 | 62 | 290 | 4.0 | 7.0 | 0.00 | 0.00 | 0.00 | 75 | 1022.9 |
| 20260906131612 | 62 | 316 | 4.0 | 7.0 | 0.00 | 0.00 | 0.00 | 75 | 1023.0 |
| 20260906131511 | 0 | 321 | 4.0 | 7.0 | 0.00 | 0.00 | 0.00 | 1023.0 | |
| 20260906131410 | 0 | 296 | 4.0 | 7.0 | 0.00 | 0.00 | 0.00 | 1023.0 | |
| 20260906131310 | 0 | 336 | 4.0 | 7.0 | 0.00 | 0.00 | 0.00 | 1023.0 | |
| 20260906131209 | 0 | 310 | 4.0 | 7.0 | 0.00 | 0.00 | 0.00 | 1023.0 | |
| 20260906131140 | 0 | 302 | 4.0 | 7.0 | 0.00 | 0.00 | 0.00 | 1023.0 | |
| 20260906131109 | 0 | 336 | 4.0 | 7.0 | 0.00 | 0.00 | 0.00 | 1023.0 | |
| 20260906131010 | 0 | 343 | 4.0 | 7.0 | 0.00 | 0.00 | 0.00 | 1023.0 | |
| 20260906130909 | 0 | 321 | 4.0 | 7.0 | 0.00 | 0.00 | 0.00 | 1023.0 | |
| 20260906130807 | 0 | 300 | 4.0 | 7.0 | 0.00 | 0.00 | 0.00 | 1023.0 | |
| 20260906130704 | 0 | 302 | 4.0 | 7.0 | 0.00 | 0.00 | 0.00 | 1023.0 | |
| 20260906130641 | 0 | 286 | 4.0 | 7.0 | 0.00 | 0.00 | 0.00 | 1023.0 | |
| 20260906130603 | 0 | 309 | 4.0 | 7.0 | 0.00 | 0.00 | 0.00 | 1023.0 | |
| 20260906130504 | 0 | 298 | 4.0 | 7.0 | 0.00 | 0.00 | 0.00 | 1023.0 | |
| 20260906130403 | 0 | 321 | 4.0 | 7.0 | 0.00 | 0.00 | 0.00 | 1022.9 | |
| 20260906130303 | 0 | 305 | 4.0 | 7.0 | 0.00 | 0.00 | 0.00 | 1023.0 | |
| 20260906130204 | 0 | 327 | 4.0 | 7.0 | 0.00 | 0.00 | 0.00 | 1023.0 | |
| 20260906130142 | 0 | 301 | 4.0 | 7.0 | 0.00 | 0.00 | 0.00 | 1023.0 | |
| 20260906130103 | 0 | 305 | 4.0 | 7.0 | 0.00 | 0.00 | 0.00 | 1022.9 | |
| 20260906130004 | 0 | 306 | 3.0 | 7.0 | 0.00 | 0.00 | 0.00 | 1023.0 | |
| 20260906125904 | 0 | 306 | 3.0 | 5.0 | 0.00 | 0.00 | 0.00 | 1022.9 | |
| 20260906125801 | 0 | 306 | 3.0 | 5.0 | 0.00 | 0.00 | 0.00 | 1022.9 | |
| 20260906125701 | 0 | 306 | 2.0 | 5.0 | 0.00 | 0.00 | 0.00 | 1022.9 | |
| 20260906125641 | 0 | 306 | 2.0 | 4.0 | 0.00 | 0.00 | 0.00 | 1022.9 | |
| 20260906125602 | 0 | 306 | 2.0 | 4.0 | 0.00 | 0.00 | 0.00 | 1022.9 | |
| 20260906125509 | 0 | 306 | 2.0 | 4.0 | 0.00 | 0.00 | 0.00 | 1022.9 | |
| 20260906125259 | 0 | 341 | 2.0 | 4.0 | 0.00 | 0.00 | 0.00 | 1022.9 | |
| 20260906125200 | 0 | 341 | 2.0 | 3.0 | 0.00 | 0.00 | 0.00 | 1022.9 | |
| 20260906125139 | 0 | 341 | 1.0 | 3.0 | 0.00 | 0.00 | 0.00 | 1022.9 | |
| 20260906125054 | 0 | 341 | 1.0 | 4.0 | 0.00 | 0.00 | 0.00 | 1022.9 | |
| 20260906124954 | 0 | 341 | 2.0 | 4.0 | 0.00 | 0.00 | 0.00 | 1022.9 | |
| 20260906124853 | 0 | 341 | 2.0 | 4.0 | 0.00 | 0.00 | 0.00 | 1022.9 | |
| 20260906124811 | 0 | 341 | 2.0 | 4.0 | 0.00 | 0.00 | 0.00 | 1022.9 | |
| 20260906124804 | 0 | 341 | 2.0 | 4.0 | 0.00 | 0.00 | 0.00 | 1022.9 | |
| 20260906124347 | 0 | 341 | 2.0 | 4.0 | 0.00 | 0.00 | 0.00 | 1022.8 | |
| 20260906124137 | 0 | 341 | 2.0 | 4.0 | 0.00 | 0.00 | 0.00 | 1022.8 | |
| 20260906124038 | 0 | 320 | 1.0 | 4.0 | 0.00 | 0.00 | 0.00 | 1022.8 | |
| 20260906123951 | 0 | 326 | 1.0 | 4.0 | 0.00 | 0.00 | 0.00 | 1022.8 | |
| 20260906123637 | 0 | 326 | 1.0 | 3.0 | 0.00 | 0.00 | 0.00 | 1022.9 | |
| 20260906123538 | 0 | 326 | 1.0 | 3.0 | 0.00 | 0.00 | 0.00 | 1022.8 | |
| 20260906123437 | 0 | 326 | 1.0 | 3.0 | 0.00 | 0.00 | 0.00 | 1022.8 | |
| 20260906123338 | 0 | 326 | 1.0 | 3.0 | 0.00 | 0.00 | 0.00 | 1022.8 | |
| 20260906123237 | 0 | 326 | 1.0 | 3.0 | 0.00 | 0.00 | 0.00 | 1022.8 | |
| 20260906123137 | 0 | 325 | 1.0 | 3.0 | 0.00 | 0.00 | 0.00 | 1022.8 | |
| 20260906123038 | 0 | 326 | 1.0 | 4.0 | 0.00 | 0.00 | 0.00 | 1022.8 | |
| 20260906122936 | 0 | 325 | 2.0 | 4.0 | 0.00 | 0.00 | 0.00 | 1022.8 | |
| 20260906122836 | 0 | 326 | 2.0 | 4.0 | 0.00 | 0.00 | 0.00 | 1022.8 | |
| 20260906122736 | 0 | 326 | 2.0 | 4.0 | 0.00 | 0.00 | 0.00 | 1022.8 | |
| 20260906122631 | 0 | 326 | 2.0 | 4.0 | 0.00 | 0.00 | 0.00 | 1022.8 | |
| 20260906122526 | 0 | 326 | 2.0 | 4.0 | 0.00 | 0.00 | 0.00 | 1022.8 | |
| 20260906122425 | 0 | 326 | 2.0 | 4.0 | 0.00 | 0.00 | 0.00 | 1022.8 | |
| 20260906122321 | 0 | 326 | 2.0 | 4.0 | 0.00 | 0.00 | 0.00 | 1022.8 | |
| 20260906122220 | 0 | 326 | 2.0 | 4.0 | 0.00 | 0.00 | 0.00 | 1022.8 | |
| 20260906122120 | 0 | 326 | 2.0 | 4.0 | 0.00 | 0.00 | 0.00 | 1022.8 | |
| 20260906122027 | 0 | 321 | 2.0 | 5.0 | 0.00 | 0.00 | 0.00 | 1022.8 | |
| 20260906121817 | 0 | 321 | 3.0 | 7.0 | 0.00 | 0.00 | 0.00 | 1022.8 | |
| 20260906121716 | 0 | 321 | 3.0 | 7.0 | 0.00 | 0.00 | 0.00 | 1022.8 | |
| 20260906121616 | 0 | 321 | 3.0 | 7.0 | 0.00 | 0.00 | 0.00 | 1022.8 | |
| 20260906121513 | 0 | 321 | 3.0 | 7.0 | 0.00 | 0.00 | 0.00 | 1022.8 | |
| 20260906121413 | 0 | 321 | 3.0 | 7.0 | 0.00 | 0.00 | 0.00 | 1022.8 | |
| 20260906121312 | 0 | 321 | 4.0 | 7.0 | 0.00 | 0.00 | 0.00 | 1022.8 | |
| 20260906121212 | 0 | 294 | 4.0 | 7.0 | 0.00 | 0.00 | 0.00 | 1022.8 | |
| 20260906121131 | 0 | 300 | 3.0 | 7.0 | 0.00 | 0.00 | 0.00 | 1022.8 | |
| 20260906121113 | 0 | 299 | 3.0 | 7.0 | 0.00 | 0.00 | 0.00 | 1022.8 | |
| 20260906120915 | 0 | 315 | 3.0 | 7.0 | 0.00 | 0.00 | 0.00 | 1022.6 | |
| 20260906120631 | 0 | 317 | 3.0 | 5.0 | 0.00 | 0.00 | 0.00 | 1022.6 | |
| 20260906120602 | 0 | 315 | 3.0 | 5.0 | 0.00 | 0.00 | 0.00 | 1022.6 | |
| 20260906120528 | 0 | 294 | 3.0 | 5.0 | 0.00 | 0.00 | 0.00 | 1022.6 | |
| 20260906120201 | 0 | 331 | 2.0 | 6.0 | 0.00 | 0.00 | 0.00 | 1022.8 | |
| 20260906115956 | 0 | 343 | 3.0 | 6.0 | 0.00 | 0.00 | 0.00 | 1022.8 | |
| 20260906115902 | 0 | 343 | 3.0 | 6.0 | 0.00 | 0.00 | 0.00 | 1022.8 | |
| 20260906115654 | 0 | 294 | 3.0 | 6.0 | 0.00 | 0.00 | 0.00 | 1022.8 | |
| 20260906115626 | 0 | 294 | 2.0 | 6.0 | 0.00 | 0.00 | 0.00 | 1022.8 | |
| 20260906115552 | 0 | 326 | 2.0 | 6.0 | 0.00 | 0.00 | 0.00 | 1022.8 | |
| 20260906115452 | 0 | 317 | 2.0 | 5.0 | 0.00 | 0.00 | 0.00 | 1022.8 | |
| 20260906115416 | 0 | 266 | 3.0 | 5.0 | 0.00 | 0.00 | 0.00 | 1022.8 | |
| 20260906115410 | 0 | 289 | 3.0 | 5.0 | 0.00 | 0.00 | 0.00 | 1022.9 | |
| 20260906114840 | 0 | 290 | 2.0 | 4.0 | 0.00 | 0.00 | 0.00 | 1022.9 | |
| 20260906114740 | 0 | 290 | 2.0 | 4.0 | 0.00 | 0.00 | 0.00 | 1022.8 | |
| 20260906114620 | 0 | 290 | 2.0 | 4.0 | 0.00 | 0.00 | 0.00 | 1022.9 | |
| 20260906114557 | 0 | 290 | 2.0 | 4.0 | 0.00 | 0.00 | 0.00 | 1022.9 | |
| 20260906114121 | 0 | 314 | 1.0 | 3.0 | 0.00 | 0.00 | 0.00 | 1022.9 | |
| 20260906114035 | 0 | 314 | 1.0 | 3.0 | 0.00 | 0.00 | 0.00 | 1022.8 | |
| 20260906113942 | 0 | 314 | 1.0 | 3.0 | 0.00 | 0.00 | 0.00 | 1022.9 | |
| 20260906113734 | 0 | 314 | 1.0 | 3.0 | 0.00 | 0.00 | 0.00 | 1022.9 | |
| 20260906113621 | 0 | 314 | 1.0 | 4.0 | 0.00 | 0.00 | 0.00 | 1022.9 | |
| 20260906113532 | 0 | 314 | 1.0 | 5.0 | 0.00 | 0.00 | 0.00 | 1022.9 | |
| 20260906113430 | 0 | 314 | 2.0 | 5.0 | 0.00 | 0.00 | 0.00 | 1022.9 | |
| 20260906113330 | 0 | 314 | 2.0 | 5.0 | 0.00 | 0.00 | 0.00 | 1022.8 | |
| 20260906113234 | 0 | 314 | 2.0 | 5.0 | 0.00 | 0.00 | 0.00 | 1022.8 | |
| 20260906113119 | 0 | 314 | 3.0 | 7.0 | 0.00 | 0.00 | 0.00 | 1022.8 | |
| 20260906113025 | 0 | 314 | 3.0 | 7.0 | 0.00 | 0.00 | 0.00 | 1022.8 | |
| 20260906112924 | 0 | 348 | 3.0 | 7.0 | 0.00 | 0.00 | 0.00 | 1022.8 | |
| 20260906112816 | 0 | 348 | 3.0 | 7.0 | 0.00 | 0.00 | 0.00 | 1022.8 | |
| 20260906112715 | 0 | 348 | 4.0 | 7.0 | 0.00 | 0.00 | 0.00 | 1022.8 | |
| 20260906112620 | 0 | 326 | 4.0 | 7.0 | 0.00 | 0.00 | 0.00 | 1022.8 | |
| 20260906112615 | 0 | 335 | 4.0 | 7.0 | 0.00 | 0.00 | 0.00 | 1022.8 | |
| 20260906112543 | 0 | 306 | 4.0 | 7.0 | 0.00 | 0.00 | 0.00 | 1022.8 | |
| 20260906112429 | 0 | 306 | 4.0 | 7.0 | 0.00 | 0.00 | 0.00 | 1022.8 | |
| 20260906112012 | 0 | 292 | 3.0 | 7.0 | 0.00 | 0.00 | 0.00 | 1022.8 | |
| 20260906111909 | 0 | 313 | 3.0 | 7.0 | 0.00 | 0.00 | 0.00 | 1022.8 | |
| 20260906111809 | 0 | 311 | 3.0 | 7.0 | 0.00 | 0.00 | 0.00 | 1022.6 | |
| 20260906111710 | 0 | 350 | 4.0 | 7.0 | 0.00 | 0.00 | 0.00 | 1022.6 | |
| 20260906111616 | 0 | 293 | 4.0 | 7.0 | 0.00 | 0.00 | 0.00 | 1022.6 | |
| 20260906111420 | 0 | 305 | 4.0 | 6.0 | 0.00 | 0.00 | 0.00 | 1022.6 | |
| 20260906111106 | 0 | 336 | 3.0 | 6.0 | 0.00 | 0.00 | 0.00 | 1022.6 | |
| 20260906111006 | 0 | 336 | 3.0 | 6.0 | 0.00 | 0.00 | 0.00 | 1022.8 | |
| 20260906110903 | 0 | 333 | 3.0 | 6.0 | 0.00 | 0.00 | 0.00 | 1022.6 | |
| 20260906110804 | 0 | 302 | 3.0 | 6.0 | 0.00 | 0.00 | 0.00 | 1022.6 | |
| 20260906110702 | 0 | 311 | 3.0 | 6.0 | 0.00 | 0.00 | 0.00 | 1022.6 | |
| 20260906110613 | 0 | 322 | 2.0 | 6.0 | 0.00 | 0.00 | 0.00 | 1022.6 | |
| 20260906110602 | 0 | 325 | 2.0 | 6.0 | 0.00 | 0.00 | 0.00 | 1022.6 | |
| 20260906110504 | 0 | 319 | 2.0 | 5.0 | 0.00 | 0.00 | 0.00 | 1022.6 | |
| 20260906110258 | 0 | 344 | 2.0 | 4.0 | 0.00 | 0.00 | 0.00 | 1022.6 | |
| 20260906110156 | 0 | 344 | 2.0 | 5.0 | 0.00 | 0.00 | 0.00 | 1022.6 | |
| 20260906110113 | 0 | 332 | 2.0 | 5.0 | 0.00 | 0.00 | 0.00 | 1022.6 | |
| 20260906110100 | 0 | 332 | 2.0 | 5.0 | 0.00 | 0.00 | 0.00 | 1022.6 | |
| 20260906105851 | 0 | 332 | 2.0 | 5.0 | 0.00 | 0.00 | 0.00 | 1022.6 | |
| 20260906105751 | 0 | 332 | 2.0 | 5.0 | 0.00 | 0.00 | 0.00 | 1022.6 | |
| 20260906105720 | 0 | 332 | 3.0 | 5.0 | 0.00 | 0.00 | 0.00 | 1022.6 | |
| 20260906105550 | 63 | 332 | 3.0 | 5.0 | 0.00 | 0.00 | 0.00 | 73 | 1022.6 |
| 20260906105454 | 63 | 333 | 3.0 | 5.0 | 0.00 | 0.00 | 0.00 | 73 | 1022.5 |
| 20260906105248 | 63 | 335 | 3.0 | 5.0 | 0.00 | 0.00 | 0.00 | 73 | 1022.6 |
| 20260906105148 | 63 | 327 | 3.0 | 5.0 | 0.00 | 0.00 | 0.00 | 73 | 1022.6 |
| 20260906105113 | 63 | 327 | 3.0 | 5.0 | 0.00 | 0.00 | 0.00 | 73 | 1022.6 |
| 20260906105047 | 63 | 306 | 3.0 | 5.0 | 0.00 | 0.00 | 0.00 | 73 | 1022.6 |
| 20260906104946 | 63 | 327 | 3.0 | 6.0 | 0.00 | 0.00 | 0.00 | 73 | 1022.5 |
| 20260906104845 | 63 | 304 | 3.0 | 6.0 | 0.00 | 0.00 | 0.00 | 73 | 1022.5 |
| 20260906104745 | 63 | 346 | 3.0 | 6.0 | 0.00 | 0.00 | 0.00 | 73 | 1022.6 |
| 20260906104645 | 63 | 346 | 3.0 | 8.0 | 0.00 | 0.00 | 0.00 | 73 | 1022.5 |
| 20260906104612 | 63 | 327 | 3.0 | 8.0 | 0.00 | 0.00 | 0.00 | 73 | 1022.5 |
| 20260906104538 | 63 | 0 | 3.0 | 8.0 | 0.00 | 0.00 | 0.00 | 73 | 1022.5 |
| 20260906104438 | 63 | 355 | 4.0 | 8.0 | 0.00 | 0.00 | 0.00 | 73 | 1022.5 |
| 20260906104338 | 63 | 355 | 4.0 | 8.0 | 0.00 | 0.00 | 0.00 | 73 | 1022.5 |
| 20260906104237 | 63 | 355 | 4.0 | 9.0 | 0.00 | 0.00 | 0.00 | 73 | 1022.6 |
| 20260906104217 | 63 | 350 | 4.0 | 9.0 | 0.00 | 0.00 | 0.00 | 73 | 1022.5 |
| 20260906104034 | 63 | 348 | 4.0 | 9.0 | 0.00 | 0.00 | 0.00 | 73 | 1022.5 |
| 20260906103934 | 63 | 355 | 4.0 | 9.0 | 0.00 | 0.00 | 0.00 | 73 | 1022.5 |
| 20260906103833 | 63 | 355 | 5.0 | 10.0 | 0.00 | 0.00 | 0.00 | 73 | 1022.5 |
| 20260906103731 | 63 | 0 | 5.0 | 10.0 | 0.00 | 0.00 | 0.00 | 73 | 1022.5 |
| 20260906103632 | 63 | 5 | 5.0 | 10.0 | 0.00 | 0.00 | 0.00 | 73 | 1022.5 |
| 20260906103611 | 63 | 314 | 5.0 | 10.0 | 0.00 | 0.00 | 0.00 | 73 | 1022.5 |
| 20260906103531 | 63 | 350 | 5.0 | 10.0 | 0.00 | 0.00 | 0.00 | 74 | 1022.5 |
| 20260906103431 | 63 | 350 | 5.0 | 10.0 | 0.00 | 0.00 | 0.00 | 73 | 1022.5 |
| 20260906103326 | 63 | 44 | 5.0 | 10.0 | 0.00 | 0.00 | 0.00 | 73 | 1022.5 |
| 20260906103225 | 63 | 345 | 5.0 | 10.0 | 0.00 | 0.00 | 0.00 | 73 | 1022.5 |
| 20260906103211 | 63 | 348 | 5.0 | 10.0 | 0.00 | 0.00 | 0.00 | 73 | 1022.4 |
| 20260906103026 | 63 | 342 | 5.0 | 10.0 | 0.00 | 0.00 | 0.00 | 73 | 1022.5 |
| 20260906102927 | 64 | 5 | 5.0 | 10.0 | 0.00 | 0.00 | 0.00 | 73 | 1022.4 |
| 20260906102727 | 64 | 355 | 5.0 | 10.0 | 0.00 | 0.00 | 0.00 | 73 | 1022.4 |
| 20260906102558 | 64 | 5 | 5.0 | 10.0 | 0.00 | 0.00 | 0.00 | 73 | 1022.4 |
| 20260906102520 | 64 | 0 | 4.0 | 10.0 | 0.00 | 0.00 | 0.00 | 73 | 1022.5 |
| 20260906102419 | 64 | 0 | 4.0 | 10.0 | 0.00 | 0.00 | 0.00 | 73 | 1022.4 |
| 20260906102314 | 64 | 9 | 4.0 | 9.0 | 0.00 | 0.00 | 0.00 | 72 | 1022.5 |
| 20260906102213 | 64 | 316 | 4.0 | 9.0 | 0.00 | 0.00 | 0.00 | 72 | 1022.4 |
| 20260906102113 | 64 | 0 | 4.0 | 9.0 | 0.00 | 0.00 | 0.00 | 72 | 1022.4 |
| 20260906102053 | 64 | 333 | 4.0 | 9.0 | 0.00 | 0.00 | 0.00 | 72 | 1022.4 |
| 20260906102013 | 64 | 0 | 4.0 | 9.0 | 0.00 | 0.00 | 0.00 | 72 | 1022.5 |
| 20260906101913 | 64 | 5 | 4.0 | 9.0 | 0.00 | 0.00 | 0.00 | 72 | 1022.4 |
| 20260906101809 | 64 | 340 | 4.0 | 9.0 | 0.00 | 0.00 | 0.00 | 71 | 1022.4 |
| 20260906101707 | 64 | 324 | 3.0 | 9.0 | 0.00 | 0.00 | 0.00 | 71 | 1022.4 |
| 20260906101608 | 64 | 344 | 3.0 | 9.0 | 0.00 | 0.00 | 0.00 | 70 | 1022.4 |
| 20260906101547 | 64 | 339 | 3.0 | 9.0 | 0.00 | 0.00 | 0.00 | 70 | 1022.4 |
| 20260906101507 | 64 | 348 | 3.0 | 6.0 | 0.00 | 0.00 | 0.00 | 70 | 1022.4 |
| 20260906101406 | 63 | 313 | 3.0 | 6.0 | 0.00 | 0.00 | 0.00 | 70 | 1022.4 |
| 20260906101303 | 63 | 329 | 3.0 | 6.0 | 0.00 | 0.00 | 0.00 | 69 | 1022.4 |
| 20260906101204 | 63 | 304 | 3.0 | 5.0 | 0.00 | 0.00 | 0.00 | 69 | 1022.4 |
| 20260906101147 | 63 | 333 | 3.0 | 8.0 | 0.00 | 0.00 | 0.00 | 67 | 1022.5 |
| 20260906101003 | 63 | 343 | 3.0 | 8.0 | 0.00 | 0.00 | 0.00 | 67 | 1022.5 |
| 20260906100901 | 63 | 329 | 3.0 | 8.0 | 0.00 | 0.00 | 0.00 | 66 | 1022.5 |
| 20260906100800 | 63 | 320 | 3.0 | 8.0 | 0.00 | 0.00 | 0.00 | 66 | 1022.4 |
| 20260906100659 | 63 | 5 | 3.0 | 8.0 | 0.00 | 0.00 | 0.00 | 65 | 1022.4 |
| 20260906100641 | 63 | 355 | 3.0 | 8.0 | 0.00 | 0.00 | 0.00 | 65 | 1022.4 |
| 20260906100457 | 63 | 355 | 3.0 | 8.0 | 0.00 | 0.00 | 0.00 | 64 | 1022.4 |
| 20260906100355 | 63 | 320 | 3.0 | 8.0 | 0.00 | 0.00 | 0.00 | 63 | 1022.4 |
| 20260906100250 | 63 | 351 | 3.0 | 8.0 | 0.00 | 0.00 | 0.00 | 63 | 1022.4 |
| 20260906100157 | 63 | 348 | 3.0 | 8.0 | 0.00 | 0.00 | 0.00 | 62 | 1022.4 |
| 20260906100029 | 63 | 0 | 3.0 | 6.0 | 0.00 | 0.00 | 0.00 | 61 | 1022.4 |
| 20260906095950 | 63 | 327 | 3.0 | 6.0 | 0.00 | 0.00 | 0.00 | 61 | 1022.4 |
| 20260906095849 | 63 | 348 | 3.0 | 6.0 | 0.00 | 0.00 | 0.00 | 61 | 1022.4 |
| 20260906095745 | 63 | 355 | 3.0 | 6.0 | 0.00 | 0.00 | 0.00 | 61 | 1022.3 |
| 20260906095644 | 63 | 304 | 3.0 | 6.0 | 0.00 | 0.00 | 0.00 | 60 | 1022.4 |
| 20260906095543 | 63 | 355 | 3.0 | 6.0 | 0.00 | 0.00 | 0.00 | 60 | 1022.4 |
| 20260906095522 | 63 | 319 | 3.0 | 6.0 | 0.00 | 0.00 | 0.00 | 60 | 1022.4 |
| 20260906095444 | 63 | 351 | 3.0 | 6.0 | 0.00 | 0.00 | 0.00 | 59 | 1022.4 |
| 20260906095344 | 63 | 13 | 3.0 | 5.0 | 0.00 | 0.00 | 0.00 | 59 | 1022.4 |
| 20260906095137 | 63 | 348 | 2.0 | 5.0 | 0.00 | 0.00 | 0.00 | 59 | 1022.4 |
| 20260906095017 | 63 | 334 | 2.0 | 5.0 | 0.00 | 0.00 | 0.00 | 58 | 1022.4 |
| 20260906094938 | 63 | 334 | 2.0 | 5.0 | 0.00 | 0.00 | 0.00 | 58 | 1022.4 |
| 20260906094837 | 63 | 0 | 2.0 | 5.0 | 0.00 | 0.00 | 0.00 | 58 | 1022.5 |
| 20260906094731 | 63 | 0 | 2.0 | 5.0 | 0.00 | 0.00 | 0.00 | 58 | 1022.5 |
| 20260906094631 | 63 | 0 | 2.0 | 4.0 | 0.00 | 0.00 | 0.00 | 58 | 1022.5 |
| 20260906094532 | 63 | 344 | 2.0 | 4.0 | 0.00 | 0.00 | 0.00 | 57 | 1022.6 |
| 20260906094511 | 63 | 0 | 2.0 | 4.0 | 0.00 | 0.00 | 0.00 | 57 | 1022.6 |
| 20260906094432 | 63 | 342 | 2.0 | 4.0 | 0.00 | 0.00 | 0.00 | 57 | 1022.5 |
| 20260906094331 | 63 | 333 | 2.0 | 4.0 | 0.00 | 0.00 | 0.00 | 57 | 1022.5 |
| 20260906094227 | 63 | 333 | 2.0 | 4.0 | 0.00 | 0.00 | 0.00 | 57 | 1022.5 |
| 20260906094128 | 63 | 333 | 2.0 | 4.0 | 0.00 | 0.00 | 0.00 | 57 | 1022.5 |
| 20260906094027 | 63 | 319 | 2.0 | 4.0 | 0.00 | 0.00 | 0.00 | 57 | 1022.4 |
| 20260906094011 | 63 | 11 | 2.0 | 4.0 | 0.00 | 0.00 | 0.00 | 57 | 1022.4 |
| 20260906093928 | 63 | 11 | 2.0 | 4.0 | 0.00 | 0.00 | 0.00 | 57 | 1022.5 |
| 20260906093825 | 63 | 11 | 2.0 | 3.0 | 0.00 | 0.00 | 0.00 | 57 | 1022.5 |
| 20260906093725 | 63 | 11 | 2.0 | 3.0 | 0.00 | 0.00 | 0.00 | 57 | 1022.5 |
| 20260906093623 | 64 | 11 | 1.0 | 3.0 | 0.00 | 0.00 | 0.00 | 57 | 1022.5 |
| 20260906093509 | 64 | 11 | 1.0 | 3.0 | 0.00 | 0.00 | 0.00 | 57 | 1022.5 |
| 20260906093421 | 64 | 11 | 1.0 | 3.0 | 0.00 | 0.00 | 0.00 | 57 | 1022.5 |
| 20260906093323 | 64 | 11 | 1.0 | 3.0 | 0.00 | 0.00 | 0.00 | 57 | 1022.4 |
| 20260906093113 | 64 | 11 | 1.0 | 3.0 | 0.00 | 0.00 | 0.00 | 57 | 1022.4 |
| 20260906093026 | 64 | 11 | 1.0 | 3.0 | 0.00 | 0.00 | 0.00 | 56 | 1022.4 |
| 20260906092708 | 64 | 11 | 1.0 | 3.0 | 0.00 | 0.00 | 0.00 | 56 | 1022.4 |
| 20260906092607 | 64 | 11 | 1.0 | 3.0 | 0.00 | 0.00 | 0.00 | 56 | 1022.4 |
| 20260906092507 | 64 | 11 | 1.0 | 3.0 | 0.00 | 0.00 | 0.00 | 56 | 1022.4 |
| 20260906092407 | 64 | 11 | 1.0 | 3.0 | 0.00 | 0.00 | 0.00 | 56 | 1022.4 |
| 20260906092307 | 64 | 11 | 1.0 | 2.0 | 0.00 | 0.00 | 0.00 | 55 | 1022.3 |
| 20260906092203 | 64 | 11 | 1.0 | 2.0 | 0.00 | 0.00 | 0.00 | 55 | 1022.3 |
| 20260906092105 | 64 | 11 | 1.0 | 2.0 | 0.00 | 0.00 | 0.00 | 55 | 1022.3 |
| 20260906091901 | 64 | 11 | 1.0 | 3.0 | 0.00 | 0.00 | 0.00 | 54 | 1022.3 |
| 20260906091759 | 65 | 11 | 1.0 | 3.0 | 0.00 | 0.00 | 0.00 | 54 | 1022.3 |
| 20260906091653 | 65 | 11 | 1.0 | 3.0 | 0.00 | 0.00 | 0.00 | 54 | 1022.3 |
| 20260906091553 | 65 | 11 | 1.0 | 3.0 | 0.00 | 0.00 | 0.00 | 54 | 1022.3 |
| 20260906091507 | 65 | 11 | 1.0 | 3.0 | 0.00 | 0.00 | 0.00 | 54 | 1022.3 |
| 20260906091454 | 65 | 11 | 1.0 | 3.0 | 0.00 | 0.00 | 0.00 | 54 | 1022.3 |
| 20260906091353 | 65 | 11 | 1.0 | 3.0 | 0.00 | 0.00 | 0.00 | 54 | 1022.3 |
| 20260906091253 | 65 | 11 | 1.0 | 3.0 | 0.00 | 0.00 | 0.00 | 54 | 1022.4 |
| 20260906091154 | 65 | 11 | 1.0 | 3.0 | 0.00 | 0.00 | 0.00 | 54 | 1022.3 |
| 20260906091052 | 65 | 11 | 1.0 | 3.0 | 0.00 | 0.00 | 0.00 | 54 | 1022.3 |
| 20260906091007 | 65 | 11 | 1.0 | 3.0 | 0.00 | 0.00 | 0.00 | 54 | 1022.3 |
| 20260906090951 | 65 | 11 | 1.0 | 3.0 | 0.00 | 0.00 | 0.00 | 54 | 1022.3 |
| 20260906090854 | 65 | 11 | 1.0 | 3.0 | 0.00 | 0.00 | 0.00 | 54 | 1022.2 |
| 20260906090641 | 65 | 11 | 2.0 | 4.0 | 0.00 | 0.00 | 0.00 | 54 | 1022.2 |
| 20260906090541 | 65 | 11 | 2.0 | 4.0 | 0.00 | 0.00 | 0.00 | 54 | 1022.0 |
| 20260906090506 | 65 | 11 | 2.0 | 4.0 | 0.00 | 0.00 | 0.00 | 54 | 1022.0 |
| 20260906090441 | 65 | 11 | 2.0 | 4.0 | 0.00 | 0.00 | 0.00 | 54 | 1022.0 |
| 20260906090343 | 66 | 11 | 2.0 | 4.0 | 0.00 | 0.00 | 0.00 | 54 | 1022.2 |
| 20260906090241 | 66 | 11 | 2.0 | 5.0 | 0.00 | 0.00 | 0.00 | 54 | 1022.0 |
| 20260906090135 | 66 | 11 | 2.0 | 5.0 | 0.00 | 0.00 | 0.00 | 54 | 1022.0 |
| 20260906090046 | 66 | 11 | 2.0 | 5.0 | 0.00 | 0.00 | 0.00 | 54 | 1022.0 |
| 20260906090039 | 66 | 11 | 2.0 | 5.0 | 0.00 | 0.00 | 0.00 | 53 | 1022.0 |
| 20260906085836 | 66 | 11 | 2.0 | 5.0 | 0.00 | 0.00 | 0.00 | 53 | 1022.2 |
| 20260906085735 | 66 | 336 | 2.0 | 5.0 | 0.00 | 0.00 | 0.00 | 53 | 1022.2 |
| 20260906085630 | 66 | 31 | 2.0 | 5.0 | 0.00 | 0.00 | 0.00 | 53 | 1022.2 |
| 20260906085529 | 66 | 31 | 2.0 | 5.0 | 0.00 | 0.00 | 0.00 | 53 | 1022.2 |
| 20260906085503 | 66 | 31 | 2.0 | 5.0 | 0.00 | 0.00 | 0.00 | 52 | 1022.2 |
| 20260906085430 | 66 | 36 | 2.0 | 5.0 | 0.00 | 0.00 | 0.00 | 52 | 1022.2 |
| 20260906085330 | 66 | 32 | 2.0 | 5.0 | 0.00 | 0.00 | 0.00 | 52 | 1022.2 |
| 20260906085230 | 66 | 28 | 2.0 | 4.0 | 0.00 | 0.00 | 0.00 | 52 | 1022.0 |
| 20260906085214 | 66 | 28 | 2.0 | 4.0 | 0.00 | 0.00 | 0.00 | 52 | 1022.2 |
| 20260906084926 | 67 | 44 | 3.0 | 5.0 | 0.00 | 0.00 | 0.00 | 51 | 1022.2 |
| 20260906084825 | 67 | 63 | 3.0 | 5.0 | 0.00 | 0.00 | 0.00 | 51 | 1022.0 |
| 20260906084723 | 67 | 74 | 3.0 | 5.0 | 0.00 | 0.00 | 0.00 | 50 | 1022.2 |
| 20260906084619 | 67 | 74 | 2.0 | 5.0 | 0.00 | 0.00 | 0.00 | 50 | 1022.0 |
| 20260906084608 | 67 | 74 | 2.0 | 5.0 | 0.00 | 0.00 | 0.00 | 50 | 1022.2 |
| 20260906084418 | 67 | 74 | 2.0 | 5.0 | 0.00 | 0.00 | 0.00 | 50 | 1022.2 |
| 20260906084318 | 67 | 74 | 2.0 | 5.0 | 0.00 | 0.00 | 0.00 | 50 | 1022.2 |
| 20260906084217 | 67 | 62 | 2.0 | 5.0 | 0.00 | 0.00 | 0.00 | 50 | 1022.2 |
| 20260906084111 | 67 | 56 | 1.0 | 5.0 | 0.00 | 0.00 | 0.00 | 50 | 1022.0 |
| 20260906084011 | 67 | 71 | 1.0 | 5.0 | 0.00 | 0.00 | 0.00 | 50 | 1022.2 |
| 20260906084000 | 67 | 60 | 1.0 | 4.0 | 0.00 | 0.00 | 0.00 | 50 | 1022.2 |
| 20260906083911 | 67 | 92 | 1.0 | 4.0 | 0.00 | 0.00 | 0.00 | 50 | 1022.2 |
| 20260906083812 | 67 | 78 | 1.0 | 4.0 | 0.00 | 0.00 | 0.00 | 49 | 1022.0 |
| 20260906083711 | 67 | 350 | 1.0 | 4.0 | 0.00 | 0.00 | 0.00 | 49 | 1021.9 |
| 20260906083612 | 67 | 350 | 1.0 | 4.0 | 0.00 | 0.00 | 0.00 | 49 | 1022.0 |
| 20260906083459 | 68 | 350 | 1.0 | 4.0 | 0.00 | 0.00 | 0.00 | 49 | 1022.0 |
| 20260906083406 | 68 | 350 | 2.0 | 4.0 | 0.00 | 0.00 | 0.00 | 49 | 1022.0 |
| 20260906083303 | 68 | 350 | 2.0 | 4.0 | 0.00 | 0.00 | 0.00 | 49 | 1021.9 |
| 20260906083203 | 68 | 350 | 2.0 | 4.0 | 0.00 | 0.00 | 0.00 | 48 | 1021.9 |
| 20260906083110 | 68 | 350 | 2.0 | 5.0 | 0.00 | 0.00 | 0.00 | 48 | 1021.9 |
| 20260906083103 | 68 | 350 | 3.0 | 6.0 | 0.00 | 0.00 | 0.00 | 48 | 1021.9 |
| 20260906082859 | 68 | 350 | 3.0 | 6.0 | 0.00 | 0.00 | 0.00 | 48 | 1021.9 |
| 20260906082800 | 68 | 349 | 3.0 | 6.0 | 0.00 | 0.00 | 0.00 | 48 | 1021.9 |
| 20260906082657 | 68 | 355 | 3.0 | 6.0 | 0.00 | 0.00 | 0.00 | 48 | 1021.9 |
| 20260906082551 | 68 | 332 | 3.0 | 6.0 | 0.00 | 0.00 | 0.00 | 48 | 1021.9 |
| 20260906082456 | 68 | 355 | 3.0 | 6.0 | 0.00 | 0.00 | 0.00 | 48 | 1021.8 |
| 20260906082451 | 68 | 334 | 3.0 | 6.0 | 0.00 | 0.00 | 0.00 | 48 | 1021.8 |
| 20260906082352 | 68 | 342 | 2.0 | 6.0 | 0.00 | 0.00 | 0.00 | 48 | 1021.8 |
| 20260906082258 | 68 | 327 | 2.0 | 6.0 | 0.00 | 0.00 | 0.00 | 48 | 1021.8 |
| 20260906082051 | 68 | 303 | 2.0 | 5.0 | 0.00 | 0.00 | 0.00 | 48 | 1021.9 |
| 20260906081951 | 68 | 333 | 2.0 | 4.0 | 0.00 | 0.00 | 0.00 | 48 | 1021.8 |
| 20260906081851 | 69 | 333 | 2.0 | 5.0 | 0.00 | 0.00 | 0.00 | 48 | 1021.8 |
| 20260906081756 | 69 | 333 | 2.0 | 5.0 | 0.00 | 0.00 | 0.00 | 48 | 1021.8 |
| 20260906081547 | 69 | 350 | 2.0 | 5.0 | 0.00 | 0.00 | 0.00 | 48 | 1021.8 |
| 20260906081448 | 69 | 350 | 2.0 | 6.0 | 0.00 | 0.00 | 0.00 | 47 | 1021.8 |
| 20260906081347 | 69 | 312 | 3.0 | 6.0 | 0.00 | 0.00 | 0.00 | 47 | 1021.7 |
| 20260906081246 | 69 | 318 | 3.0 | 7.0 | 0.00 | 0.00 | 0.00 | 47 | 1021.7 |
| 20260906081146 | 69 | 343 | 3.0 | 8.0 | 0.00 | 0.00 | 0.00 | 47 | 1021.8 |
| 20260906081046 | 69 | 341 | 4.0 | 8.0 | 0.00 | 0.00 | 0.00 | 47 | 1021.7 |
| 20260906080957 | 69 | 341 | 4.0 | 8.0 | 0.00 | 0.00 | 0.00 | 47 | 1021.7 |
| 20260906080944 | 69 | 326 | 4.0 | 8.0 | 0.00 | 0.00 | 0.00 | 47 | 1021.7 |
| 20260906080841 | 69 | 322 | 4.0 | 8.0 | 0.00 | 0.00 | 0.00 | 47 | 1021.7 |
| 20260906080742 | 69 | 340 | 5.0 | 8.0 | 0.00 | 0.00 | 0.00 | 47 | 1021.7 |
| 20260906080642 | 69 | 319 | 5.0 | 8.0 | 0.00 | 0.00 | 0.00 | 47 | 1021.7 |
| 20260906080541 | 69 | 334 | 5.0 | 8.0 | 0.00 | 0.00 | 0.00 | 47 | 1021.7 |
| 20260906080457 | 69 | 11 | 5.0 | 8.0 | 0.00 | 0.00 | 0.00 | 47 | 1021.7 |
| 20260906080441 | 69 | 315 | 5.0 | 8.0 | 0.00 | 0.00 | 0.00 | 47 | 1021.7 |
| 20260906080339 | 69 | 331 | 4.0 | 8.0 | 0.00 | 0.00 | 0.00 | 47 | 1021.7 |
| 20260906080239 | 69 | 331 | 4.0 | 8.0 | 0.00 | 0.00 | 0.00 | 47 | 1021.6 |
| 20260906080139 | 69 | 312 | 4.0 | 8.0 | 0.00 | 0.00 | 0.00 | 47 | 1021.6 |
| 20260906080037 | 69 | 334 | 4.0 | 8.0 | 0.00 | 0.00 | 0.00 | 47 | 1021.6 |
| 20260906075958 | 69 | 313 | 4.0 | 8.0 | 0.00 | 0.00 | 0.00 | 47 | 1021.6 |
| 20260906075938 | 69 | 335 | 3.0 | 8.0 | 0.00 | 0.00 | 0.00 | 47 | 1021.7 |
| 20260906075837 | 69 | 355 | 3.0 | 8.0 | 0.00 | 0.00 | 0.00 | 47 | 1021.7 |
| 20260906075737 | 69 | 307 | 3.0 | 8.0 | 0.00 | 0.00 | 0.00 | 47 | 1021.7 |
| 20260906075637 | 69 | 300 | 3.0 | 8.0 | 0.00 | 0.00 | 0.00 | 47 | 1021.7 |
| 20260906075538 | 69 | 293 | 3.0 | 8.0 | 0.00 | 0.00 | 0.00 | 47 | 1021.7 |
| 20260906075454 | 69 | 300 | 3.0 | 8.0 | 0.00 | 0.00 | 0.00 | 47 | 1021.7 |
| 20260906075438 | 69 | 328 | 3.0 | 8.0 | 0.00 | 0.00 | 0.00 | 47 | 1021.7 |
| 20260906075337 | 69 | 286 | 3.0 | 10.0 | 0.00 | 0.00 | 0.00 | 47 | 1021.7 |
| 20260906075244 | 70 | 347 | 3.0 | 10.0 | 0.00 | 0.00 | 0.00 | 48 | 1021.7 |
| 20260906075037 | 70 | 329 | 3.0 | 10.0 | 0.00 | 0.00 | 0.00 | 48 | 1021.6 |
| 20260906074953 | 70 | 311 | 3.0 | 10.0 | 0.00 | 0.00 | 0.00 | 48 | 1021.6 |
| 20260906074937 | 70 | 340 | 4.0 | 10.0 | 0.00 | 0.00 | 0.00 | 48 | 1021.7 |
| 20260906074836 | 70 | 323 | 4.0 | 10.0 | 0.00 | 0.00 | 0.00 | 47 | 1021.7 |
| 20260906074737 | 70 | 306 | 4.0 | 10.0 | 0.00 | 0.00 | 0.00 | 47 | 1021.6 |
| 20260906074707 | 70 | 280 | 4.0 | 10.0 | 0.00 | 0.00 | 0.00 | 47 | 1021.6 |
| 20260906074431 | 71 | 342 | 4.0 | 10.0 | 0.00 | 0.00 | 0.00 | 47 | 1021.7 |
| 20260906074331 | 71 | 322 | 5.0 | 9.0 | 0.00 | 0.00 | 0.00 | 47 | 1021.7 |
| 20260906074231 | 71 | 17 | 5.0 | 10.0 | 0.00 | 0.00 | 0.00 | 47 | 1021.7 |
| 20260906074127 | 71 | 20 | 5.0 | 10.0 | 0.00 | 0.00 | 0.00 | 47 | 1021.7 |
| 20260906074100 | 71 | 11 | 5.0 | 10.0 | 0.00 | 0.00 | 0.00 | 47 | 1021.7 |
| 20260906073925 | 71 | 341 | 6.0 | 10.0 | 0.00 | 0.00 | 0.00 | 47 | 1021.6 |
| 20260906073830 | 71 | 331 | 6.0 | 10.0 | 0.00 | 0.00 | 0.00 | 47 | 1021.7 |
| 20260906073629 | 71 | 294 | 6.0 | 10.0 | 0.00 | 0.00 | 0.00 | 47 | 1021.6 |
| 20260906073451 | 71 | 318 | 5.0 | 10.0 | 0.00 | 0.00 | 0.00 | 47 | 1021.6 |
| 20260906073423 | 71 | 297 | 5.0 | 10.0 | 0.00 | 0.00 | 0.00 | 47 | 1021.6 |
| 20260906073323 | 71 | 311 | 5.0 | 10.0 | 0.00 | 0.00 | 0.00 | 47 | 1021.6 |
| 20260906073223 | 71 | 300 | 5.0 | 8.0 | 0.00 | 0.00 | 0.00 | 47 | 1021.7 |
| 20260906073123 | 71 | 306 | 5.0 | 8.0 | 0.00 | 0.00 | 0.00 | 47 | 1021.6 |
| 20260906073024 | 71 | 313 | 5.0 | 8.0 | 0.00 | 0.00 | 0.00 | 47 | 1021.6 |
| 20260906072950 | 71 | 301 | 5.0 | 8.0 | 0.00 | 0.00 | 0.00 | 47 | 1021.6 |
| 20260906072923 | 71 | 300 | 4.0 | 8.0 | 0.00 | 0.00 | 0.00 | 47 | 1021.6 |
| 20260906072823 | 71 | 317 | 4.0 | 8.0 | 0.00 | 0.00 | 0.00 | 47 | 1021.6 |
| 20260906072723 | 71 | 313 | 4.0 | 8.0 | 0.00 | 0.00 | 0.00 | 48 | 1021.6 |
| 20260906072624 | 71 | 277 | 4.0 | 8.0 | 0.00 | 0.00 | 0.00 | 48 | 1021.6 |
| 20260906072558 | 71 | 317 | 4.0 | 7.0 | 0.00 | 0.00 | 0.00 | 49 | 1021.6 |
| 20260906072423 | 71 | 309 | 4.0 | 7.0 | 0.00 | 0.00 | 0.00 | 49 | 1021.7 |
| 20260906072323 | 71 | 310 | 4.0 | 7.0 | 0.00 | 0.00 | 0.00 | 49 | 1021.7 |
| 20260906072223 | 71 | 288 | 4.0 | 7.0 | 0.00 | 0.00 | 0.00 | 49 | 1021.7 |
| 20260906072141 | 71 | 333 | 4.0 | 7.0 | 0.00 | 0.00 | 0.00 | 49 | 1021.7 |
| 20260906072134 | 71 | 308 | 4.0 | 7.0 | 0.00 | 0.00 | 0.00 | 49 | 1021.7 |
| 20260906071828 | 71 | 319 | 4.0 | 7.0 | 0.00 | 0.00 | 0.00 | 49 | 1021.7 |
| 20260906071621 | 71 | 272 | 4.0 | 7.0 | 0.00 | 0.00 | 0.00 | 50 | 1021.6 |
| 20260906071557 | 71 | 278 | 4.0 | 7.0 | 0.00 | 0.00 | 0.00 | 50 | 1021.6 |
| 20260906071421 | 71 | 266 | 3.0 | 7.0 | 0.00 | 0.00 | 0.00 | 51 | 1021.6 |
| 20260906071322 | 70 | 288 | 3.0 | 7.0 | 0.00 | 0.00 | 0.00 | 51 | 1021.6 |
| 20260906071115 | 70 | 282 | 3.0 | 7.0 | 0.00 | 0.00 | 0.00 | 51 | 1021.7 |
| 20260906071015 | 70 | 284 | 3.0 | 7.0 | 0.00 | 0.00 | 0.00 | 50 | 1021.6 |
| 20260906070948 | 70 | 298 | 3.0 | 7.0 | 0.00 | 0.00 | 0.00 | 50 | 1021.6 |
| 20260906070922 | 70 | 317 | 3.0 | 7.0 | 0.00 | 0.00 | 0.00 | 50 | 1021.6 |
| 20260906070716 | 70 | 291 | 3.0 | 6.0 | 0.00 | 0.00 | 0.00 | 49 | 1021.7 |
| 20260906070616 | 71 | 314 | 3.0 | 6.0 | 0.00 | 0.00 | 0.00 | 49 | 1021.7 |
| 20260906070516 | 70 | 299 | 3.0 | 6.0 | 0.00 | 0.00 | 0.00 | 49 | 1021.7 |
| 20260906070447 | 71 | 321 | 3.0 | 6.0 | 0.00 | 0.00 | 0.00 | 49 | 1021.7 |
| 20260906070415 | 71 | 311 | 3.0 | 6.0 | 0.00 | 0.00 | 0.00 | 49 | 1021.6 |
| 20260906070313 | 70 | 274 | 3.0 | 6.0 | 0.00 | 0.00 | 0.00 | 49 | 1021.6 |
| 20260906070213 | 71 | 305 | 3.0 | 7.0 | 0.00 | 0.00 | 0.00 | 49 | 1021.6 |
| 20260906070113 | 71 | 271 | 4.0 | 7.0 | 0.00 | 0.00 | 0.00 | 49 | 1021.6 |
| 20260906070029 | 71 | 296 | 4.0 | 7.0 | 0.00 | 0.00 | 0.00 | 49 | 1021.7 |
| 20260906070023 | 71 | 296 | 4.0 | 7.0 | 0.00 | 0.00 | 0.00 | 49 | 1021.7 |
| 20260906065711 | 71 | 292 | 4.0 | 7.0 | 0.00 | 0.00 | 0.00 | 50 | 1021.7 |
| 20260906065611 | 70 | 293 | 4.0 | 7.0 | 0.00 | 0.00 | 0.00 | 50 | 1021.7 |
| 20260906065511 | 70 | 297 | 4.0 | 7.0 | 0.00 | 0.00 | 0.00 | 50 | 1021.7 |
| 20260906065446 | 70 | 313 | 4.0 | 7.0 | 0.00 | 0.00 | 0.00 | 50 | 1021.7 |
| 20260906065411 | 70 | 290 | 5.0 | 7.0 | 0.00 | 0.00 | 0.00 | 50 | 1021.7 |
| 20260906065311 | 70 | 300 | 4.0 | 7.0 | 0.00 | 0.00 | 0.00 | 50 | 1021.7 |
| 20260906065211 | 70 | 292 | 4.0 | 7.0 | 0.00 | 0.00 | 0.00 | 51 | 1021.8 |
| 20260906065111 | 70 | 292 | 4.0 | 7.0 | 0.00 | 0.00 | 0.00 | 51 | 1021.8 |
| 20260906065011 | 70 | 284 | 4.0 | 7.0 | 0.00 | 0.00 | 0.00 | 51 | 1021.8 |
| 20260906064945 | 70 | 308 | 4.0 | 7.0 | 0.00 | 0.00 | 0.00 | 51 | 1021.8 |
| 20260906064911 | 70 | 287 | 4.0 | 7.0 | 0.00 | 0.00 | 0.00 | 52 | 1021.7 |
| 20260906064811 | 69 | 274 | 4.0 | 7.0 | 0.00 | 0.00 | 0.00 | 51 | 1021.8 |
| 20260906064711 | 69 | 278 | 4.0 | 7.0 | 0.00 | 0.00 | 0.00 | 52 | 1021.8 |
| 20260906064657 | 69 | 294 | 3.0 | 7.0 | 0.00 | 0.00 | 0.00 | 51 | 1021.8 |
| 20260906064418 | 69 | 286 | 3.0 | 6.0 | 0.00 | 0.00 | 0.00 | 51 | 1021.8 |
| 20260906064211 | 69 | 294 | 3.0 | 6.0 | 0.00 | 0.00 | 0.00 | 51 | 1021.8 |
| 20260906064111 | 69 | 306 | 3.0 | 6.0 | 0.00 | 0.00 | 0.00 | 52 | 1021.7 |
| 20260906064011 | 69 | 294 | 2.0 | 6.0 | 0.00 | 0.00 | 0.00 | 52 | 1021.8 |
| 20260906063945 | 69 | 282 | 2.0 | 6.0 | 0.00 | 0.00 | 0.00 | 52 | 1021.8 |
| 20260906063911 | 69 | 285 | 2.0 | 6.0 | 0.00 | 0.00 | 0.00 | 52 | 1021.8 |
| 20260906063810 | 69 | 300 | 2.0 | 5.0 | 0.00 | 0.00 | 0.00 | 53 | 1021.9 |
| 20260906063709 | 69 | 288 | 2.0 | 5.0 | 0.00 | 0.00 | 0.00 | 53 | 1021.8 |
| 20260906063658 | 69 | 287 | 2.0 | 4.0 | 0.00 | 0.00 | 0.00 | 53 | 1021.9 |
| 20260906063409 | 69 | 276 | 1.0 | 4.0 | 0.00 | 0.00 | 0.00 | 53 | 1021.9 |
| 20260906063320 | 69 | 288 | 2.0 | 4.0 | 0.00 | 0.00 | 0.00 | 53 | 1021.9 |
| 20260906063007 | 69 | 266 | 2.0 | 6.0 | 0.00 | 0.00 | 0.00 | 52 | 1021.9 |
| 20260906062945 | 69 | 266 | 2.0 | 6.0 | 0.00 | 0.00 | 0.00 | 52 | 1021.9 |
| 20260906062903 | 69 | 266 | 2.0 | 6.0 | 0.00 | 0.00 | 0.00 | 52 | 1021.9 |
| 20260906062803 | 69 | 266 | 2.0 | 6.0 | 0.00 | 0.00 | 0.00 | 52 | 1022.0 |
| 20260906062703 | 69 | 265 | 2.0 | 6.0 | 0.00 | 0.00 | 0.00 | 52 | 1021.9 |
| 20260906062603 | 69 | 263 | 3.0 | 6.0 | 0.00 | 0.00 | 0.00 | 53 | 1022.0 |
| 20260906062503 | 69 | 257 | 3.0 | 6.0 | 0.00 | 0.00 | 0.00 | 53 | 1022.0 |
| 20260906062445 | 69 | 257 | 3.0 | 6.0 | 0.00 | 0.00 | 0.00 | 53 | 1022.0 |
| 20260906062402 | 69 | 277 | 3.0 | 6.0 | 0.00 | 0.00 | 0.00 | 53 | 1022.0 |
| 20260906062306 | 70 | 265 | 3.0 | 6.0 | 0.00 | 0.00 | 0.00 | 53 | 1021.9 |
| 20260906062203 | 70 | 281 | 3.0 | 6.0 | 0.00 | 0.00 | 0.00 | 54 | 1021.9 |
| 20260906062102 | 70 | 267 | 3.0 | 6.0 | 0.00 | 0.00 | 0.00 | 54 | 1022.0 |
| 20260906062014 | 70 | 257 | 3.0 | 5.0 | 0.00 | 0.00 | 0.00 | 53 | 1022.0 |
| 20260906062007 | 70 | 257 | 3.0 | 5.0 | 0.00 | 0.00 | 0.00 | 53 | 1022.0 |
| 20260906061803 | 70 | 257 | 3.0 | 5.0 | 0.00 | 0.00 | 0.00 | 53 | 1022.0 |
| 20260906061703 | 70 | 249 | 3.0 | 6.0 | 0.00 | 0.00 | 0.00 | 53 | 1021.9 |
| 20260906061603 | 70 | 230 | 3.0 | 6.0 | 0.00 | 0.00 | 0.00 | 53 | 1021.9 |
| 20260906061503 | 70 | 246 | 3.0 | 6.0 | 0.00 | 0.00 | 0.00 | 53 | 1022.0 |
| 20260906061446 | 70 | 246 | 3.0 | 6.0 | 0.00 | 0.00 | 0.00 | 53 | 1022.0 |
| 20260906061403 | 70 | 268 | 3.0 | 6.0 | 0.00 | 0.00 | 0.00 | 53 | 1021.9 |
| 20260906061303 | 70 | 239 | 3.0 | 7.0 | 0.00 | 0.00 | 0.00 | 53 | 1021.9 |
| 20260906061210 | 70 | 261 | 3.0 | 7.0 | 0.00 | 0.00 | 0.00 | 54 | 1021.9 |
| 20260906060959 | 70 | 221 | 3.0 | 7.0 | 0.00 | 0.00 | 0.00 | 54 | 1021.9 |
| 20260906060945 | 70 | 242 | 3.0 | 7.0 | 0.00 | 0.00 | 0.00 | 54 | 1021.9 |
| 20260906060859 | 70 | 222 | 3.0 | 7.0 | 0.00 | 0.00 | 0.00 | 54 | 1021.9 |
| 20260906060759 | 70 | 238 | 3.0 | 7.0 | 0.00 | 0.00 | 0.00 | 54 | 1021.9 |
| 20260906060659 | 70 | 204 | 3.0 | 7.0 | 0.00 | 0.00 | 0.00 | 54 | 1022.0 |
| 20260906060559 | 71 | 245 | 3.0 | 7.0 | 0.00 | 0.00 | 0.00 | 54 | 1022.0 |
| 20260906060459 | 71 | 250 | 3.0 | 7.0 | 0.00 | 0.00 | 0.00 | 54 | 1021.9 |
| 20260906060445 | 71 | 234 | 3.0 | 7.0 | 0.00 | 0.00 | 0.00 | 54 | 1021.9 |
| 20260906060359 | 71 | 248 | 3.0 | 7.0 | 0.00 | 0.00 | 0.00 | 53 | 1021.9 |
| 20260906060300 | 71 | 264 | 3.0 | 7.0 | 0.00 | 0.00 | 0.00 | 53 | 1022.0 |
| 20260906060159 | 71 | 244 | 3.0 | 8.0 | 0.00 | 0.00 | 0.00 | 54 | 1022.0 |
| 20260906060059 | 71 | 253 | 3.0 | 10.0 | 0.00 | 0.00 | 0.00 | 54 | 1021.9 |
| 20260906055945 | 71 | 228 | 4.0 | 10.0 | 0.00 | 0.00 | 0.00 | 53 | 1022.0 |
| 20260906055857 | 71 | 209 | 4.0 | 10.0 | 0.00 | 0.00 | 0.00 | 53 | 1022.0 |
| 20260906055753 | 71 | 246 | 4.0 | 10.0 | 0.00 | 0.00 | 0.00 | 53 | 1021.9 |
| 20260906055658 | 71 | 246 | 4.0 | 10.0 | 0.00 | 0.00 | 0.00 | 53 | 1021.9 |
| 20260906055451 | 71 | 215 | 4.0 | 10.0 | 0.00 | 0.00 | 0.00 | 54 | 1022.0 |
| 20260906055444 | 71 | 234 | 4.0 | 10.0 | 0.00 | 0.00 | 0.00 | 54 | 1022.0 |
| 20260906055351 | 71 | 204 | 3.0 | 10.0 | 0.00 | 0.00 | 0.00 | 53 | 1022.0 |
| 20260906055247 | 71 | 261 | 3.0 | 10.0 | 0.00 | 0.00 | 0.00 | 54 | 1022.0 |
| 20260906055148 | 71 | 236 | 2.0 | 10.0 | 0.00 | 0.00 | 0.00 | 54 | 1022.0 |
| 20260906055047 | 71 | 242 | 2.0 | 10.0 | 0.00 | 0.00 | 0.00 | 53 | 1022.0 |
| 20260906054947 | 71 | 220 | 2.0 | 10.0 | 0.00 | 0.00 | 0.00 | 51 | 1022.0 |
| 20260906054845 | 71 | 232 | 2.0 | 6.0 | 0.00 | 0.00 | 0.00 | 51 | 1021.9 |
| 20260906054744 | 72 | 233 | 2.0 | 7.0 | 0.00 | 0.00 | 0.00 | 51 | 1021.9 |
| 20260906054644 | 72 | 275 | 2.0 | 7.0 | 0.00 | 0.00 | 0.00 | 51 | 1021.8 |
| 20260906054544 | 72 | 275 | 2.0 | 7.0 | 0.00 | 0.00 | 0.00 | 51 | 1021.8 |
| 20260906054441 | 72 | 275 | 2.0 | 7.0 | 0.00 | 0.00 | 0.00 | 51 | 1021.8 |
| 20260906054339 | 72 | 275 | 3.0 | 7.0 | 0.00 | 0.00 | 0.00 | 51 | 1021.8 |
| 20260906054239 | 72 | 275 | 3.0 | 7.0 | 0.00 | 0.00 | 0.00 | 51 | 1021.8 |
| 20260906054140 | 72 | 275 | 3.0 | 7.0 | 0.00 | 0.00 | 0.00 | 51 | 1021.8 |
| 20260906054051 | 72 | 275 | 3.0 | 7.0 | 0.00 | 0.00 | 0.00 | 52 | 1021.8 |
| 20260906053940 | 72 | 252 | 3.0 | 7.0 | 0.00 | 0.00 | 0.00 | 52 | 1021.8 |
| 20260906053846 | 72 | 244 | 3.0 | 6.0 | 0.00 | 0.00 | 0.00 | 51 | 1021.9 |
| 20260906053640 | 72 | 267 | 3.0 | 6.0 | 0.00 | 0.00 | 0.00 | 49 | 1021.8 |
| 20260906053539 | 73 | 321 | 4.0 | 9.0 | 0.00 | 0.00 | 0.00 | 49 | 1021.8 |
| 20260906053444 | 73 | 290 | 4.0 | 9.0 | 0.00 | 0.00 | 0.00 | 49 | 1021.8 |
| 20260906053440 | 73 | 295 | 4.0 | 9.0 | 0.00 | 0.00 | 0.00 | 49 | 1021.7 |
| 20260906053338 | 73 | 327 | 4.0 | 9.0 | 0.00 | 0.00 | 0.00 | 50 | 1021.7 |
| 20260906053238 | 73 | 340 | 5.0 | 9.0 | 0.00 | 0.00 | 0.00 | 50 | 1021.7 |
| 20260906053135 | 73 | 350 | 5.0 | 9.0 | 0.00 | 0.00 | 0.00 | 50 | 1021.7 |
| 20260906053046 | 73 | 337 | 5.0 | 9.0 | 0.00 | 0.00 | 0.00 | 50 | 1021.7 |
| 20260906053039 | 73 | 350 | 5.0 | 9.0 | 0.00 | 0.00 | 0.00 | 49 | 1021.7 |
| 20260906052835 | 73 | 355 | 5.0 | 9.0 | 0.00 | 0.00 | 0.00 | 49 | 1021.8 |
| 20260906052736 | 73 | 339 | 5.0 | 9.0 | 0.00 | 0.00 | 0.00 | 49 | 1021.8 |
| 20260906052635 | 73 | 323 | 5.0 | 9.0 | 0.00 | 0.00 | 0.00 | 48 | 1021.9 |
| 20260906052441 | 73 | 297 | 5.0 | 9.0 | 0.00 | 0.00 | 0.00 | 47 | 1022.0 |
| 20260906052429 | 73 | 303 | 4.0 | 9.0 | 0.00 | 0.00 | 0.00 | 47 | 1022.0 |
| 20260906052329 | 73 | 336 | 4.0 | 9.0 | 0.00 | 0.00 | 0.00 | 48 | 1022.2 |
| 20260906052229 | 73 | 305 | 3.0 | 9.0 | 0.00 | 0.00 | 0.00 | 48 | 1022.3 |
| 20260906052129 | 72 | 311 | 3.0 | 9.0 | 0.00 | 0.00 | 0.00 | 48 | 1022.3 |
| 20260906052029 | 72 | 292 | 3.0 | 8.0 | 0.00 | 0.00 | 0.00 | 48 | 1022.4 |
| 20260906051941 | 73 | 300 | 3.0 | 7.0 | 0.00 | 0.00 | 0.00 | 49 | 1022.4 |
| 20260906051929 | 73 | 293 | 3.0 | 7.0 | 0.00 | 0.00 | 0.00 | 49 | 1022.4 |
| 20260906051829 | 73 | 313 | 2.0 | 7.0 | 0.00 | 0.00 | 0.00 | 48 | 1022.4 |
| 20260906051729 | 73 | 281 | 2.0 | 7.0 | 0.00 | 0.00 | 0.00 | 49 | 1022.5 |
| 20260906051629 | 73 | 279 | 2.0 | 7.0 | 0.00 | 0.00 | 0.00 | 49 | 1022.6 |
| 20260906051529 | 73 | 254 | 2.0 | 7.0 | 0.00 | 0.00 | 0.00 | 50 | 1022.6 |
| 20260906051436 | 73 | 292 | 2.0 | 7.0 | 0.00 | 0.00 | 0.00 | 48 | 1022.8 |
| 20260906051228 | 73 | 256 | 3.0 | 10.0 | 0.00 | 0.00 | 0.00 | 47 | 1022.8 |
| 20260906051125 | 73 | 256 | 3.0 | 10.0 | 0.00 | 0.00 | 0.00 | 47 | 1022.8 |
| 20260906051038 | 73 | 240 | 3.0 | 10.0 | 0.00 | 0.00 | 0.00 | 46 | 1022.8 |
| 20260906050923 | 73 | 240 | 3.0 | 10.0 | 0.00 | 0.00 | 0.00 | 45 | 1022.8 |
| 20260906050823 | 73 | 259 | 3.0 | 10.0 | 0.00 | 0.00 | 0.00 | 45 | 1022.8 |
| 20260906050723 | 73 | 209 | 3.0 | 10.0 | 0.00 | 0.00 | 0.00 | 44 | 1022.9 |
| 20260906050623 | 73 | 209 | 3.0 | 10.0 | 0.00 | 0.00 | 0.00 | 46 | 1022.9 |
| 20260906050524 | 73 | 196 | 3.0 | 10.0 | 0.00 | 0.00 | 0.00 | 47 | 1022.9 |
| 20260906050431 | 73 | 197 | 3.0 | 10.0 | 0.00 | 0.00 | 0.00 | 47 | 1022.9 |
| 20260906050423 | 73 | 196 | 3.0 | 10.0 | 0.00 | 0.00 | 0.00 | 47 | 1022.9 |
| 20260906050319 | 73 | 194 | 3.0 | 10.0 | 0.00 | 0.00 | 0.00 | 47 | 1023.0 |
| 20260906050217 | 73 | 187 | 3.0 | 8.0 | 0.00 | 0.00 | 0.00 | 48 | 1022.9 |
| 20260906050118 | 73 | 176 | 3.0 | 8.0 | 0.00 | 0.00 | 0.00 | 46 | 1023.0 |
| 20260906050017 | 73 | 184 | 3.0 | 8.0 | 0.00 | 0.00 | 0.00 | 45 | 1022.9 |
| 20260906045930 | 73 | 159 | 3.0 | 7.0 | 0.00 | 0.00 | 0.00 | 45 | 1022.9 |
| 20260906045917 | 73 | 146 | 3.0 | 6.0 | 0.00 | 0.00 | 0.00 | 44 | 1022.9 |
| 20260906045817 | 73 | 146 | 3.0 | 7.0 | 0.00 | 0.00 | 0.00 | 44 | 1022.9 |
| 20260906045717 | 73 | 138 | 3.0 | 7.0 | 0.00 | 0.00 | 0.00 | 43 | 1022.9 |
| 20260906045617 | 73 | 121 | 3.0 | 7.0 | 0.00 | 0.00 | 0.00 | 43 | 1022.9 |
| 20260906045516 | 74 | 114 | 4.0 | 9.0 | 0.00 | 0.00 | 0.00 | 42 | 1022.9 |
| 20260906045416 | 74 | 98 | 4.0 | 9.0 | 0.00 | 0.00 | 0.00 | 41 | 1022.9 |
| 20260906045315 | 74 | 111 | 4.0 | 9.0 | 0.00 | 0.00 | 0.00 | 41 | 1022.8 |
| 20260906045215 | 74 | 119 | 4.0 | 9.0 | 0.00 | 0.00 | 0.00 | 41 | 1022.9 |
| 20260906045115 | 74 | 118 | 4.0 | 9.0 | 0.00 | 0.00 | 0.00 | 41 | 1022.9 |
| 20260906045013 | 74 | 116 | 4.0 | 9.0 | 0.00 | 0.00 | 0.00 | 41 | 1022.9 |
| 20260906044928 | 74 | 106 | 4.0 | 9.0 | 0.00 | 0.00 | 0.00 | 41 | 1022.9 |
| 20260906044913 | 74 | 117 | 4.0 | 9.0 | 0.00 | 0.00 | 0.00 | 41 | 1022.9 |
| 20260906044820 | 74 | 119 | 4.0 | 9.0 | 0.00 | 0.00 | 0.00 | 41 | 1022.9 |
| 20260906044613 | 74 | 164 | 4.0 | 9.0 | 0.00 | 0.00 | 0.00 | 41 | 1022.9 |
| 20260906044525 | 74 | 144 | 4.0 | 9.0 | 0.00 | 0.00 | 0.00 | 41 | 1022.9 |
| 20260906044518 | 74 | 113 | 4.0 | 9.0 | 0.00 | 0.00 | 0.00 | 41 | 1022.8 |
| 20260906044313 | 74 | 140 | 4.0 | 9.0 | 0.00 | 0.00 | 0.00 | 40 | 1022.8 |
| 20260906044225 | 74 | 120 | 4.0 | 9.0 | 0.00 | 0.00 | 0.00 | 40 | 1022.8 |
| 20260906043911 | 74 | 113 | 3.0 | 7.0 | 0.00 | 0.00 | 0.00 | 39 | 1022.5 |
| 20260906043811 | 74 | 101 | 3.0 | 7.0 | 0.00 | 0.00 | 0.00 | 39 | 1022.4 |
| 20260906043709 | 74 | 78 | 2.0 | 7.0 | 0.00 | 0.00 | 0.00 | 39 | 1022.4 |
| 20260906043610 | 73 | 87 | 2.0 | 6.0 | 0.00 | 0.00 | 0.00 | 40 | 1022.4 |
| 20260906043520 | 73 | 94 | 2.0 | 6.0 | 0.00 | 0.00 | 0.00 | 40 | 1022.4 |
| 20260906043513 | 73 | 68 | 2.0 | 5.0 | 0.00 | 0.00 | 0.00 | 40 | 1022.3 |
| 20260906043309 | 73 | 78 | 1.0 | 4.0 | 0.00 | 0.00 | 0.00 | 39 | 1022.3 |
| 20260906043209 | 73 | 51 | 1.0 | 4.0 | 0.00 | 0.00 | 0.00 | 40 | 1022.3 |
| 20260906043107 | 73 | 51 | 1.0 | 4.0 | 0.00 | 0.00 | 0.00 | 40 | 1022.2 |
| 20260906043034 | 73 | 51 | 1.0 | 4.0 | 0.00 | 0.00 | 0.00 | 40 | 1022.0 |
| 20260906042907 | 73 | 51 | 1.0 | 4.0 | 0.00 | 0.00 | 0.00 | 40 | 1022.0 |
| 20260906042813 | 73 | 51 | 2.0 | 4.0 | 0.00 | 0.00 | 0.00 | 39 | 1022.0 |
| 20260906042605 | 73 | 51 | 1.0 | 4.0 | 0.00 | 0.00 | 0.00 | 39 | 1021.9 |
| 20260906042506 | 73 | 50 | 1.0 | 4.0 | 0.00 | 0.00 | 0.00 | 39 | 1021.9 |
| 20260906042406 | 73 | 5 | 1.0 | 4.0 | 0.00 | 0.00 | 0.00 | 39 | 1021.9 |
| 20260906042307 | 73 | 5 | 1.0 | 4.0 | 0.00 | 0.00 | 0.00 | 39 | 1021.9 |
| 20260906042205 | 73 | 5 | 1.0 | 4.0 | 0.00 | 0.00 | 0.00 | 39 | 1021.9 |
| 20260906042105 | 73 | 5 | 1.0 | 4.0 | 0.00 | 0.00 | 0.00 | 40 | 1021.9 |
| 20260906042021 | 73 | 5 | 1.0 | 4.0 | 0.00 | 0.00 | 0.00 | 39 | 1021.9 |
| 20260906042015 | 73 | 5 | 1.0 | 4.0 | 0.00 | 0.00 | 0.00 | 39 | 1021.9 |
| 20260906041703 | 73 | 5 | 2.0 | 4.0 | 0.00 | 0.00 | 0.00 | 40 | 1021.9 |
| 20260906041603 | 73 | 5 | 2.0 | 4.0 | 0.00 | 0.00 | 0.00 | 40 | 1021.9 |
| 20260906041514 | 73 | 5 | 2.0 | 4.0 | 0.00 | 0.00 | 0.00 | 39 | 1021.9 |
| 20260906041507 | 73 | 28 | 2.0 | 4.0 | 0.00 | 0.00 | 0.00 | 39 | 1021.9 |
| 20260906041310 | 73 | 28 | 2.0 | 7.0 | 0.00 | 0.00 | 0.00 | 39 | 1021.9 |
| 20260906041104 | 73 | 34 | 3.0 | 7.0 | 0.00 | 0.00 | 0.00 | 39 | 1021.9 |
| 20260906041000 | 73 | 36 | 3.0 | 7.0 | 0.00 | 0.00 | 0.00 | 39 | 1021.9 |
| 20260906040925 | 73 | 35 | 3.0 | 7.0 | 0.00 | 0.00 | 0.00 | 39 | 1021.9 |
| 20260906040900 | 74 | 5 | 3.0 | 7.0 | 0.00 | 0.00 | 0.00 | 39 | 1021.9 |
| 20260906040759 | 74 | 0 | 3.0 | 7.0 | 0.00 | 0.00 | 0.00 | 39 | 1021.9 |
| 20260906040659 | 73 | 355 | 3.0 | 7.0 | 0.00 | 0.00 | 0.00 | 39 | 1021.9 |
| 20260906040559 | 73 | 341 | 3.0 | 7.0 | 0.00 | 0.00 | 0.00 | 39 | 1022.0 |
| 20260906040500 | 73 | 341 | 2.0 | 7.0 | 0.00 | 0.00 | 0.00 | 39 | 1022.0 |
| 20260906040425 | 74 | 341 | 2.0 | 7.0 | 0.00 | 0.00 | 0.00 | 39 | 1022.2 |
| 20260906040359 | 73 | 341 | 2.0 | 7.0 | 0.00 | 0.00 | 0.00 | 39 | 1022.2 |
| 20260906040259 | 73 | 300 | 2.0 | 7.0 | 0.00 | 0.00 | 0.00 | 40 | 1022.2 |
| 20260906040159 | 73 | 308 | 2.0 | 4.0 | 0.00 | 0.00 | 0.00 | 40 | 1022.0 |
| 20260906040059 | 73 | 311 | 1.0 | 4.0 | 0.00 | 0.00 | 0.00 | 40 | 1021.9 |
| 20260906035959 | 74 | 311 | 1.0 | 4.0 | 0.00 | 0.00 | 0.00 | 40 | 1021.9 |
| 20260906035924 | 74 | 311 | 1.0 | 4.0 | 0.00 | 0.00 | 0.00 | 41 | 1021.9 |
| 20260906035859 | 74 | 311 | 1.0 | 4.0 | 0.00 | 0.00 | 0.00 | 41 | 1021.9 |
| 20260906035759 | 74 | 311 | 1.0 | 4.0 | 0.00 | 0.00 | 0.00 | 40 | 1021.8 |
| 20260906035706 | 74 | 66 | 1.0 | 2.0 | 0.00 | 0.00 | 0.00 | 40 | 1021.8 |
| 20260906035459 | 74 | 66 | 1.0 | 3.0 | 0.00 | 0.00 | 0.00 | 40 | 1021.7 |
| 20260906035425 | 74 | 66 | 1.0 | 3.0 | 0.00 | 0.00 | 0.00 | 40 | 1021.7 |
| 20260906035400 | 74 | 66 | 1.0 | 3.0 | 0.00 | 0.00 | 0.00 | 40 | 1021.7 |
| 20260906035300 | 74 | 66 | 1.0 | 3.0 | 0.00 | 0.00 | 0.00 | 40 | 1021.7 |
| 20260906035159 | 74 | 66 | 1.0 | 4.0 | 0.00 | 0.00 | 0.00 | 40 | 1021.7 |
| 20260906035055 | 74 | 66 | 2.0 | 6.0 | 0.00 | 0.00 | 0.00 | 40 | 1021.7 |
| 20260906034955 | 74 | 66 | 2.0 | 6.0 | 0.00 | 0.00 | 0.00 | 40 | 1021.6 |
| 20260906034924 | 74 | 66 | 2.0 | 6.0 | 0.00 | 0.00 | 0.00 | 40 | 1021.6 |
| 20260906034855 | 74 | 66 | 2.0 | 6.0 | 0.00 | 0.00 | 0.00 | 40 | 1021.6 |
| 20260906034802 | 74 | 66 | 3.0 | 6.0 | 0.00 | 0.00 | 0.00 | 40 | 1021.6 |
| 20260906034555 | 74 | 66 | 3.0 | 6.0 | 0.00 | 0.00 | 0.00 | 40 | 1021.6 |
| 20260906034455 | 74 | 66 | 3.0 | 7.0 | 0.00 | 0.00 | 0.00 | 40 | 1021.6 |
| 20260906034424 | 74 | 66 | 4.0 | 7.0 | 0.00 | 0.00 | 0.00 | 40 | 1021.6 |
| 20260906034355 | 74 | 66 | 4.0 | 7.0 | 0.00 | 0.00 | 0.00 | 39 | 1021.6 |
| 20260906034255 | 74 | 66 | 4.0 | 7.0 | 0.00 | 0.00 | 0.00 | 39 | 1021.6 |
| 20260906034201 | 74 | 65 | 4.0 | 8.0 | 0.00 | 0.00 | 0.00 | 40 | 1021.5 |
| 20260906033955 | 74 | 76 | 4.0 | 8.0 | 0.00 | 0.00 | 0.00 | 40 | 1021.5 |
| 20260906033924 | 74 | 71 | 5.0 | 8.0 | 0.00 | 0.00 | 0.00 | 40 | 1021.3 |
| 20260906033856 | 74 | 55 | 5.0 | 10.0 | 0.00 | 0.00 | 0.00 | 41 | 1021.3 |
| 20260906033755 | 74 | 56 | 5.0 | 10.0 | 0.00 | 0.00 | 0.00 | 40 | 1021.5 |
| 20260906033655 | 74 | 56 | 5.0 | 10.0 | 0.00 | 0.00 | 0.00 | 41 | 1021.5 |
| 20260906033601 | 74 | 33 | 5.0 | 10.0 | 0.00 | 0.00 | 0.00 | 40 | 1021.5 |
| 20260906033425 | 74 | 66 | 4.0 | 10.0 | 0.00 | 0.00 | 0.00 | 40 | 1021.3 |
| 20260906033356 | 74 | 42 | 4.0 | 10.0 | 0.00 | 0.00 | 0.00 | 40 | 1021.3 |
| 20260906033255 | 74 | 53 | 4.0 | 10.0 | 0.00 | 0.00 | 0.00 | 39 | 1021.3 |
| 20260906033152 | 74 | 76 | 4.0 | 10.0 | 0.00 | 0.00 | 0.00 | 38 | 1021.5 |
| 20260906033051 | 74 | 88 | 3.0 | 10.0 | 0.00 | 0.00 | 0.00 | 38 | 1021.5 |
| 20260906032951 | 74 | 65 | 3.0 | 10.0 | 0.00 | 0.00 | 0.00 | 38 | 1021.5 |
| 20260906032925 | 74 | 59 | 2.0 | 9.0 | 0.00 | 0.00 | 0.00 | 37 | 1021.3 |
| 20260906032858 | 74 | 49 | 2.0 | 8.0 | 0.00 | 0.00 | 0.00 | 37 | 1021.3 |
| 20260906032651 | 74 | 49 | 2.0 | 6.0 | 0.00 | 0.00 | 0.00 | 37 | 1021.3 |
| 20260906032551 | 74 | 63 | 1.0 | 4.0 | 0.00 | 0.00 | 0.00 | 37 | 1021.3 |
| 20260906032450 | 74 | 122 | 1.0 | 4.0 | 0.00 | 0.00 | 0.00 | 36 | 1021.2 |
| 20260906032421 | 74 | 122 | 1.0 | 4.0 | 0.00 | 0.00 | 0.00 | 36 | 1021.1 |
| 20260906032351 | 74 | 122 | 1.0 | 4.0 | 0.00 | 0.00 | 0.00 | 36 | 1021.1 |
| 20260906032251 | 74 | 159 | 1.0 | 4.0 | 0.00 | 0.00 | 0.00 | 36 | 1021.1 |
| 20260906032151 | 74 | 159 | 1.0 | 4.0 | 0.00 | 0.00 | 0.00 | 36 | 1021.1 |
| 20260906032050 | 74 | 175 | 1.0 | 4.0 | 0.00 | 0.00 | 0.00 | 36 | 1021.1 |
| 20260906031921 | 74 | 207 | 1.0 | 2.0 | 0.00 | 0.00 | 0.00 | 36 | 1021.1 |
| 20260906031851 | 74 | 207 | 1.0 | 2.0 | 0.00 | 0.00 | 0.00 | 36 | 1021.1 |
| 20260906031758 | 74 | 207 | 1.0 | 2.0 | 0.00 | 0.00 | 0.00 | 36 | 1021.1 |
| 20260906031552 | 74 | 200 | 1.0 | 3.0 | 0.00 | 0.00 | 0.00 | 35 | 1021.1 |
| 20260906031452 | 74 | 200 | 1.0 | 4.0 | 0.00 | 0.00 | 0.00 | 35 | 1021.1 |
| 20260906031420 | 74 | 200 | 1.0 | 4.0 | 0.00 | 0.00 | 0.00 | 35 | 1021.1 |
| 20260906031354 | 74 | 200 | 1.0 | 4.0 | 0.00 | 0.00 | 0.00 | 35 | 1021.1 |
| 20260906031147 | 75 | 200 | 2.0 | 4.0 | 0.00 | 0.00 | 0.00 | 35 | 1021.1 |
| 20260906031047 | 75 | 200 | 2.0 | 4.0 | 0.00 | 0.00 | 0.00 | 34 | 1021.1 |
| 20260906030921 | 75 | 200 | 2.0 | 4.0 | 0.00 | 0.00 | 0.00 | 34 | 1021.1 |
| 20260906030848 | 75 | 200 | 2.0 | 5.0 | 0.00 | 0.00 | 0.00 | 34 | 1021.1 |
| 20260906030747 | 75 | 200 | 3.0 | 6.0 | 0.00 | 0.00 | 0.00 | 34 | 1021.1 |
| 20260906030647 | 75 | 200 | 3.0 | 6.0 | 0.00 | 0.00 | 0.00 | 34 | 1021.1 |
| 20260906030553 | 76 | 200 | 3.0 | 6.0 | 0.00 | 0.00 | 0.00 | 34 | 1021.1 |
| 20260906030421 | 76 | 196 | 3.0 | 6.0 | 0.00 | 0.00 | 0.00 | 34 | 1021.0 |
| 20260906030347 | 76 | 196 | 3.0 | 6.0 | 0.00 | 0.00 | 0.00 | 34 | 1021.0 |
| 20260906030247 | 76 | 192 | 2.0 | 6.0 | 0.00 | 0.00 | 0.00 | 34 | 1020.9 |
| 20260906030147 | 76 | 183 | 2.0 | 6.0 | 0.00 | 0.00 | 0.00 | 33 | 1021.0 |
| 20260906030054 | 76 | 183 | 2.0 | 6.0 | 0.00 | 0.00 | 0.00 | 33 | 1021.0 |
| 20260906025921 | 76 | 172 | 2.0 | 6.0 | 0.00 | 0.00 | 0.00 | 33 | 1020.9 |
| 20260906025848 | 76 | 178 | 2.0 | 7.0 | 0.00 | 0.00 | 0.00 | 33 | 1020.9 |
| 20260906025747 | 76 | 177 | 2.0 | 7.0 | 0.00 | 0.00 | 0.00 | 33 | 1020.9 |
| 20260906025647 | 77 | 167 | 2.0 | 7.0 | 0.00 | 0.00 | 0.00 | 33 | 1020.9 |
| 20260906025554 | 77 | 165 | 2.0 | 7.0 | 0.00 | 0.00 | 0.00 | 33 | 1020.7 |
| 20260906025421 | 77 | 136 | 2.0 | 7.0 | 0.00 | 0.00 | 0.00 | 33 | 1020.7 |
| 20260906025343 | 77 | 136 | 2.0 | 7.0 | 0.00 | 0.00 | 0.00 | 33 | 1020.7 |
| 20260906025243 | 77 | 136 | 2.0 | 7.0 | 0.00 | 0.00 | 0.00 | 33 | 1020.7 |
| 20260906025207 | 77 | 136 | 3.0 | 8.0 | 0.00 | 0.00 | 0.00 | 33 | 1020.7 |
| 20260906025200 | 78 | 136 | 3.0 | 8.0 | 0.00 | 0.00 | 0.00 | 33 | 1020.7 |
| 20260906024743 | 78 | 180 | 2.0 | 8.0 | 0.00 | 0.00 | 0.00 | 33 | 1020.7 |
| 20260906024643 | 78 | 180 | 3.0 | 8.0 | 0.00 | 0.00 | 0.00 | 33 | 1020.6 |
| 20260906024543 | 78 | 233 | 3.0 | 8.0 | 0.00 | 0.00 | 0.00 | 33 | 1020.6 |
| 20260906024443 | 78 | 222 | 3.0 | 8.0 | 0.00 | 0.00 | 0.00 | 33 | 1020.6 |
| 20260906024421 | 78 | 221 | 3.0 | 8.0 | 0.00 | 0.00 | 0.00 | 33 | 1020.5 |
| 20260906024343 | 78 | 272 | 3.0 | 8.0 | 0.00 | 0.00 | 0.00 | 33 | 1020.5 |
| 20260906024242 | 78 | 260 | 3.0 | 8.0 | 0.00 | 0.00 | 0.00 | 33 | 1020.5 |
| 20260906024143 | 78 | 286 | 3.0 | 8.0 | 0.00 | 0.00 | 0.00 | 32 | 1020.5 |
| 20260906024043 | 78 | 333 | 3.0 | 8.0 | 0.00 | 0.00 | 0.00 | 33 | 1020.5 |
| 20260906023942 | 79 | 240 | 4.0 | 8.0 | 0.00 | 0.00 | 0.00 | 33 | 1020.5 |
| 20260906023921 | 79 | 240 | 4.0 | 8.0 | 0.00 | 0.00 | 0.00 | 33 | 1020.4 |
| 20260906023842 | 79 | 251 | 4.0 | 8.0 | 0.00 | 0.00 | 0.00 | 32 | 1020.4 |
| 20260906023743 | 79 | 304 | 4.0 | 8.0 | 0.00 | 0.00 | 0.00 | 32 | 1020.4 |
| 20260906023643 | 79 | 305 | 4.0 | 8.0 | 0.00 | 0.00 | 0.00 | 32 | 1020.3 |
| 20260906023544 | 79 | 269 | 4.0 | 9.0 | 0.00 | 0.00 | 0.00 | 31 | 1020.3 |
| 20260906023439 | 79 | 310 | 4.0 | 9.0 | 0.00 | 0.00 | 0.00 | 31 | 1020.3 |
| 20260906023421 | 79 | 319 | 4.0 | 9.0 | 0.00 | 0.00 | 0.00 | 31 | 1020.3 |
| 20260906023352 | 79 | 318 | 4.0 | 9.0 | 0.00 | 0.00 | 0.00 | 31 | 1020.3 |
| 20260906023039 | 79 | 298 | 4.0 | 9.0 | 0.00 | 0.00 | 0.00 | 31 | 1020.3 |
| 20260906022958 | 80 | 319 | 4.0 | 10.0 | 0.00 | 0.00 | 0.00 | 31 | 1020.3 |
| 20260906022950 | 80 | 289 | 4.0 | 10.0 | 0.00 | 0.00 | 0.00 | 31 | 1020.3 |
| 20260906022639 | 80 | 256 | 4.0 | 10.0 | 0.00 | 0.00 | 0.00 | 30 | 1020.3 |
| 20260906022539 | 80 | 303 | 4.0 | 10.0 | 0.00 | 0.00 | 0.00 | 30 | 1020.3 |
| 20260906022437 | 80 | 304 | 5.0 | 10.0 | 0.00 | 0.00 | 0.00 | 30 | 1020.3 |
| 20260906022421 | 80 | 287 | 5.0 | 10.0 | 0.00 | 0.00 | 0.00 | 30 | 1020.3 |
| 20260906022336 | 80 | 288 | 5.0 | 10.0 | 0.00 | 0.00 | 0.00 | 30 | 1020.3 |
| 20260906022241 | 80 | 279 | 5.0 | 10.0 | 0.00 | 0.00 | 0.00 | 30 | 1020.2 |
| 20260906022033 | 80 | 317 | 6.0 | 12.0 | 0.00 | 0.00 | 0.00 | 29 | 1020.3 |
| 20260906021931 | 80 | 306 | 6.0 | 12.0 | 0.00 | 0.00 | 0.00 | 30 | 1020.3 |
| 20260906021918 | 80 | 322 | 6.0 | 12.0 | 0.00 | 0.00 | 0.00 | 30 | 1020.3 |
| 20260906021832 | 80 | 294 | 6.0 | 12.0 | 0.00 | 0.00 | 0.00 | 29 | 1020.3 |
| 20260906021629 | 81 | 275 | 7.0 | 12.0 | 0.00 | 0.00 | 0.00 | 29 | 1020.2 |
| 20260906021436 | 81 | 321 | 7.0 | 12.0 | 0.00 | 0.00 | 0.00 | 29 | 1020.2 |
| 20260906021429 | 81 | 319 | 7.0 | 12.0 | 0.00 | 0.00 | 0.00 | 29 | 1020.2 |
| 20260906021117 | 81 | 306 | 8.0 | 12.0 | 0.00 | 0.00 | 0.00 | 29 | 1020.2 |
| 20260906021017 | 81 | 331 | 9.0 | 14.0 | 0.00 | 0.00 | 0.00 | 28 | 1020.3 |
| 20260906020926 | 81 | 283 | 9.0 | 14.0 | 0.00 | 0.00 | 0.00 | 28 | 1020.2 |
| 20260906020922 | 81 | 297 | 9.0 | 14.0 | 0.00 | 0.00 | 0.00 | 28 | 1020.2 |
| 20260906020711 | 81 | 296 | 8.0 | 14.0 | 0.00 | 0.00 | 0.00 | 28 | 1020.2 |
| 20260906020609 | 82 | 300 | 8.0 | 14.0 | 0.00 | 0.00 | 0.00 | 28 | 1020.2 |
| 20260906020509 | 82 | 329 | 8.0 | 14.0 | 0.00 | 0.00 | 0.00 | 28 | 1020.3 |
| 20260906020416 | 82 | 292 | 8.0 | 14.0 | 0.00 | 0.00 | 0.00 | 28 | 1020.3 |
| 20260906020409 | 82 | 317 | 8.0 | 14.0 | 0.00 | 0.00 | 0.00 | 28 | 1020.3 |
| 20260906020308 | 82 | 317 | 8.0 | 14.0 | 0.00 | 0.00 | 0.00 | 28 | 1020.3 |
| 20260906020210 | 82 | 301 | 8.0 | 14.0 | 0.00 | 0.00 | 0.00 | 28 | 1020.3 |
| 20260906020021 | 82 | 294 | 7.0 | 14.0 | 0.00 | 0.00 | 0.00 | 28 | 1020.3 |
| 20260906015908 | 82 | 270 | 7.0 | 14.0 | 0.00 | 0.00 | 0.00 | 29 | 1020.3 |
| 20260906015655 | 82 | 286 | 8.0 | 15.0 | 0.00 | 0.00 | 0.00 | 29 | 1020.3 |
| 20260906015555 | 82 | 275 | 9.0 | 15.0 | 0.00 | 0.00 | 0.00 | 29 | 1020.2 |
| 20260906015454 | 82 | 313 | 8.0 | 15.0 | 0.00 | 0.00 | 0.00 | 29 | 1020.2 |
| 20260906015415 | 82 | 301 | 9.0 | 15.0 | 0.00 | 0.00 | 0.00 | 29 | 1020.2 |
| 20260906015356 | 82 | 289 | 9.0 | 15.0 | 0.00 | 0.00 | 0.00 | 28 | 1020.2 |
| 20260906015254 | 82 | 315 | 8.0 | 15.0 | 0.00 | 0.00 | 0.00 | 28 | 1020.2 |
| 20260906015149 | 82 | 303 | 8.0 | 15.0 | 0.00 | 0.00 | 0.00 | 28 | 1020.2 |
| 20260906015049 | 81 | 273 | 8.0 | 15.0 | 0.00 | 0.00 | 0.00 | 28 | 1020.3 |
| 20260906014947 | 81 | 302 | 8.0 | 15.0 | 0.00 | 0.00 | 0.00 | 29 | 1020.3 |
| 20260906014912 | 81 | 333 | 8.0 | 15.0 | 0.00 | 0.00 | 0.00 | 29 | 1020.3 |
| 20260906014847 | 81 | 304 | 8.0 | 15.0 | 0.00 | 0.00 | 0.00 | 29 | 1020.3 |
| 20260906014746 | 81 | 315 | 8.0 | 15.0 | 0.00 | 0.00 | 0.00 | 29 | 1020.2 |
| 20260906014640 | 81 | 288 | 7.0 | 14.0 | 0.00 | 0.00 | 0.00 | 29 | 1020.2 |
| 20260906014541 | 81 | 317 | 7.0 | 14.0 | 0.00 | 0.00 | 0.00 | 29 | 1020.2 |
| 20260906014441 | 81 | 275 | 7.0 | 14.0 | 0.00 | 0.00 | 0.00 | 30 | 1020.0 |
| 20260906014412 | 81 | 277 | 7.0 | 13.0 | 0.00 | 0.00 | 0.00 | 30 | 1020.0 |
| 20260906014340 | 81 | 293 | 7.0 | 13.0 | 0.00 | 0.00 | 0.00 | 30 | 1020.0 |
| 20260906014240 | 81 | 277 | 6.0 | 13.0 | 0.00 | 0.00 | 0.00 | 30 | 1020.0 |
| 20260906014133 | 81 | 301 | 6.0 | 13.0 | 0.00 | 0.00 | 0.00 | 30 | 1020.0 |
| 20260906014032 | 81 | 316 | 6.0 | 13.0 | 0.00 | 0.00 | 0.00 | 29 | 1020.0 |
| 20260906013933 | 81 | 311 | 6.0 | 12.0 | 0.00 | 0.00 | 0.00 | 30 | 1020.0 |
| 20260906013912 | 81 | 300 | 6.0 | 12.0 | 0.00 | 0.00 | 0.00 | 30 | 1020.0 |
| 20260906013833 | 81 | 306 | 6.0 | 12.0 | 0.00 | 0.00 | 0.00 | 30 | 1020.0 |
| 20260906013733 | 81 | 279 | 6.0 | 12.0 | 0.00 | 0.00 | 0.00 | 30 | 1020.0 |
| 20260906013627 | 81 | 304 | 6.0 | 12.0 | 0.00 | 0.00 | 0.00 | 30 | 1020.0 |
| 20260906013527 | 81 | 284 | 6.0 | 12.0 | 0.00 | 0.00 | 0.00 | 30 | 1019.9 |
| 20260906013427 | 81 | 280 | 5.0 | 12.0 | 0.00 | 0.00 | 0.00 | 30 | 1019.9 |
| 20260906013405 | 81 | 322 | 5.0 | 12.0 | 0.00 | 0.00 | 0.00 | 30 | 1019.9 |
| 20260906013334 | 81 | 321 | 5.0 | 12.0 | 0.00 | 0.00 | 0.00 | 30 | 1020.0 |
| 20260906013127 | 81 | 306 | 5.0 | 12.0 | 0.00 | 0.00 | 0.00 | 30 | 1020.0 |
| 20260906013043 | 81 | 297 | 5.0 | 11.0 | 0.00 | 0.00 | 0.00 | 31 | 1019.9 |
| 20260906013036 | 81 | 298 | 5.0 | 11.0 | 0.00 | 0.00 | 0.00 | 30 | 1019.9 |
| 20260906012725 | 81 | 286 | 4.0 | 11.0 | 0.00 | 0.00 | 0.00 | 30 | 1019.9 |
| 20260906012624 | 81 | 333 | 5.0 | 9.0 | 0.00 | 0.00 | 0.00 | 30 | 1020.0 |
| 20260906012525 | 82 | 322 | 5.0 | 10.0 | 0.00 | 0.00 | 0.00 | 30 | 1019.9 |
| 20260906012434 | 82 | 272 | 6.0 | 11.0 | 0.00 | 0.00 | 0.00 | 30 | 1019.9 |
| 20260906012427 | 82 | 279 | 6.0 | 12.0 | 0.00 | 0.00 | 0.00 | 29 | 1019.9 |
| 20260906012222 | 82 | 308 | 7.0 | 13.0 | 0.00 | 0.00 | 0.00 | 29 | 1020.0 |
| 20260906012147 | 82 | 306 | 7.0 | 13.0 | 0.00 | 0.00 | 0.00 | 29 | 1020.0 |
| 20260906012034 | 82 | 281 | 8.0 | 13.0 | 0.00 | 0.00 | 0.00 | 29 | 1020.0 |
| 20260906011722 | 82 | 313 | 9.0 | 13.0 | 0.00 | 0.00 | 0.00 | 29 | 1020.0 |
| 20260906011622 | 82 | 298 | 9.0 | 13.0 | 0.00 | 0.00 | 0.00 | 29 | 1020.0 |
| 20260906011521 | 82 | 290 | 9.0 | 13.0 | 0.00 | 0.00 | 0.00 | 29 | 1020.0 |
| 20260906011416 | 82 | 304 | 10.0 | 13.0 | 0.00 | 0.00 | 0.00 | 28 | 1020.0 |
| 20260906011340 | 82 | 317 | 10.0 | 14.0 | 0.00 | 0.00 | 0.00 | 28 | 1020.0 |
| 20260906011316 | 82 | 304 | 10.0 | 14.0 | 0.00 | 0.00 | 0.00 | 28 | 1020.0 |
| 20260906011216 | 82 | 282 | 10.0 | 14.0 | 0.00 | 0.00 | 0.00 | 28 | 1020.0 |
| 20260906011116 | 82 | 310 | 9.0 | 14.0 | 0.00 | 0.00 | 0.00 | 28 | 1020.0 |
| 20260906011017 | 82 | 315 | 10.0 | 14.0 | 0.00 | 0.00 | 0.00 | 28 | 1020.0 |
| 20260906010921 | 82 | 302 | 9.0 | 14.0 | 0.00 | 0.00 | 0.00 | 28 | 1020.0 |
| 20260906010914 | 82 | 331 | 9.0 | 14.0 | 0.00 | 0.00 | 0.00 | 28 | 1020.0 |
| 20260906010710 | 82 | 315 | 9.0 | 14.0 | 0.00 | 0.00 | 0.00 | 28 | 1019.9 |
| 20260906010629 | 83 | 307 | 8.0 | 14.0 | 0.00 | 0.00 | 0.00 | 28 | 1020.0 |
| 20260906010622 | 83 | 317 | 8.0 | 14.0 | 0.00 | 0.00 | 0.00 | 28 | 1020.0 |
| 20260906010205 | 83 | 334 | 8.0 | 14.0 | 0.00 | 0.00 | 0.00 | 28 | 1020.0 |
| 20260906010105 | 83 | 317 | 8.0 | 14.0 | 0.00 | 0.00 | 0.00 | 28 | 1020.0 |
| 20260906010004 | 83 | 294 | 9.0 | 14.0 | 0.00 | 0.00 | 0.00 | 28 | 1020.2 |
| 20260906005900 | 83 | 306 | 9.0 | 17.0 | 0.00 | 0.00 | 0.00 | 28 | 1020.0 |
| 20260906005821 | 83 | 287 | 9.0 | 17.0 | 0.00 | 0.00 | 0.00 | 28 | 1020.0 |
| 20260906005800 | 83 | 313 | 9.0 | 17.0 | 0.00 | 0.00 | 0.00 | 28 | 1020.0 |
| 20260906005700 | 83 | 317 | 10.0 | 17.0 | 0.00 | 0.00 | 0.00 | 28 | 1020.0 |
| 20260906005600 | 83 | 281 | 10.0 | 17.0 | 0.00 | 0.00 | 0.00 | 28 | 1020.0 |
| 20260906005458 | 83 | 288 | 11.0 | 17.0 | 0.00 | 0.00 | 0.00 | 27 | 1020.0 |
| 20260906005353 | 83 | 309 | 11.0 | 17.0 | 0.00 | 0.00 | 0.00 | 27 | 1020.2 |
| 20260906005316 | 83 | 320 | 10.0 | 17.0 | 0.00 | 0.00 | 0.00 | 27 | 1020.2 |
| 20260906005252 | 83 | 306 | 10.0 | 17.0 | 0.00 | 0.00 | 0.00 | 27 | 1020.2 |
| 20260906005152 | 83 | 300 | 10.0 | 17.0 | 0.00 | 0.00 | 0.00 | 27 | 1020.0 |
| 20260906005052 | 83 | 301 | 10.0 | 17.0 | 0.00 | 0.00 | 0.00 | 27 | 1020.0 |
| 20260906004951 | 83 | 313 | 10.0 | 17.0 | 0.00 | 0.00 | 0.00 | 27 | 1020.0 |
| 20260906004846 | 83 | 298 | 10.0 | 16.0 | 0.00 | 0.00 | 0.00 | 27 | 1020.2 |
| 20260906004810 | 83 | 295 | 10.0 | 16.0 | 0.00 | 0.00 | 0.00 | 27 | 1020.0 |
| 20260906004746 | 83 | 297 | 10.0 | 16.0 | 0.00 | 0.00 | 0.00 | 27 | 1020.0 |
| 20260906004646 | 83 | 297 | 10.0 | 16.0 | 0.00 | 0.00 | 0.00 | 27 | 1020.0 |
| 20260906004546 | 84 | 309 | 10.0 | 16.0 | 0.00 | 0.00 | 0.00 | 27 | 1020.0 |
| 20260906004445 | 84 | 299 | 10.0 | 17.0 | 0.00 | 0.00 | 0.00 | 27 | 1020.0 |
| 20260906004340 | 84 | 323 | 10.0 | 17.0 | 0.00 | 0.00 | 0.00 | 27 | 1019.9 |
| 20260906004304 | 84 | 307 | 10.0 | 17.0 | 0.00 | 0.00 | 0.00 | 27 | 1020.0 |
| 20260906004240 | 84 | 306 | 10.0 | 17.0 | 0.00 | 0.00 | 0.00 | 27 | 1020.0 |
| 20260906004141 | 84 | 317 | 10.0 | 17.0 | 0.00 | 0.00 | 0.00 | 27 | 1020.0 |
| 20260906004040 | 84 | 306 | 10.0 | 17.0 | 0.00 | 0.00 | 0.00 | 27 | 1020.0 |
| 20260906003940 | 84 | 296 | 8.0 | 17.0 | 0.00 | 0.00 | 0.00 | 26 | 1020.0 |
| 20260906003834 | 84 | 298 | 8.0 | 17.0 | 0.00 | 0.00 | 0.00 | 26 | 1020.0 |
| 20260906003758 | 84 | 289 | 8.0 | 17.0 | 0.00 | 0.00 | 0.00 | 26 | 1020.0 |
| 20260906003734 | 84 | 321 | 7.0 | 17.0 | 0.00 | 0.00 | 0.00 | 26 | 1020.0 |
| 20260906003634 | 84 | 333 | 7.0 | 17.0 | 0.00 | 0.00 | 0.00 | 26 | 1020.0 |
| 20260906003534 | 84 | 311 | 6.0 | 17.0 | 0.00 | 0.00 | 0.00 | 25 | 1020.0 |
| 20260906003434 | 84 | 336 | 6.0 | 13.0 | 0.00 | 0.00 | 0.00 | 25 | 1020.0 |
| 20260906003358 | 84 | 334 | 5.0 | 13.0 | 0.00 | 0.00 | 0.00 | 26 | 1020.0 |
| 20260906003230 | 84 | 306 | 4.0 | 11.0 | 0.00 | 0.00 | 0.00 | 25 | 1020.0 |
| 20260906003130 | 84 | 316 | 4.0 | 11.0 | 0.00 | 0.00 | 0.00 | 25 | 1020.0 |
| 20260906003029 | 84 | 343 | 4.0 | 10.0 | 0.00 | 0.00 | 0.00 | 26 | 1020.0 |
| 20260906002928 | 84 | 5 | 4.0 | 10.0 | 0.00 | 0.00 | 0.00 | 25 | 1020.0 |
| 20260906002823 | 84 | 341 | 4.0 | 10.0 | 0.00 | 0.00 | 0.00 | 26 | 1020.0 |
| 20260906002746 | 84 | 355 | 4.0 | 9.0 | 0.00 | 0.00 | 0.00 | 26 | 1020.0 |
| 20260906002722 | 84 | 14 | 4.0 | 9.0 | 0.00 | 0.00 | 0.00 | 26 | 1020.0 |
| 20260906002622 | 84 | 27 | 4.0 | 9.0 | 0.00 | 0.00 | 0.00 | 26 | 1020.2 |
| 20260906002522 | 84 | 5 | 4.0 | 9.0 | 0.00 | 0.00 | 0.00 | 26 | 1020.0 |
| 20260906002422 | 84 | 336 | 4.0 | 9.0 | 0.00 | 0.00 | 0.00 | 26 | 1020.0 |
| 20260906002318 | 84 | 311 | 4.0 | 9.0 | 0.00 | 0.00 | 0.00 | 26 | 1020.0 |
| 20260906002218 | 84 | 334 | 4.0 | 9.0 | 0.00 | 0.00 | 0.00 | 26 | 1020.0 |
| 20260906002118 | 84 | 320 | 4.0 | 10.0 | 0.00 | 0.00 | 0.00 | 26 | 1020.0 |
| 20260906002019 | 84 | 355 | 4.0 | 10.0 | 0.00 | 0.00 | 0.00 | 26 | 1020.0 |
| 20260906001918 | 84 | 342 | 5.0 | 10.0 | 0.00 | 0.00 | 0.00 | 26 | 1020.0 |
| 20260906001733 | 84 | 338 | 5.0 | 10.0 | 0.00 | 0.00 | 0.00 | 26 | 1020.0 |
| 20260906001711 | 84 | 355 | 5.0 | 10.0 | 0.00 | 0.00 | 0.00 | 26 | 1020.0 |
| 20260906001618 | 84 | 5 | 5.0 | 12.0 | 0.00 | 0.00 | 0.00 | 26 | 1020.0 |
| 20260906001410 | 84 | 338 | 6.0 | 12.0 | 0.00 | 0.00 | 0.00 | 26 | 1020.0 |
| 20260906001304 | 85 | 9 | 6.0 | 12.0 | 0.00 | 0.00 | 0.00 | 26 | 1019.9 |
| 20260906001227 | 85 | 334 | 6.0 | 12.0 | 0.00 | 0.00 | 0.00 | 26 | 1020.0 |
| 20260906001204 | 85 | 347 | 6.0 | 12.0 | 0.00 | 0.00 | 0.00 | 26 | 1020.0 |
| 20260906001104 | 85 | 355 | 6.0 | 12.0 | 0.00 | 0.00 | 0.00 | 25 | 1020.0 |
| 20260906001011 | 85 | 355 | 6.0 | 12.0 | 0.00 | 0.00 | 0.00 | 26 | 1020.0 |
| 20260906000801 | 85 | 348 | 6.0 | 12.0 | 0.00 | 0.00 | 0.00 | 26 | 1020.0 |
| 20260906000721 | 85 | 344 | 6.0 | 12.0 | 0.00 | 0.00 | 0.00 | 26 | 1019.9 |
| 20260906000700 | 85 | 336 | 6.0 | 12.0 | 0.00 | 0.00 | 0.00 | 26 | 1019.9 |
| 20260906000558 | 85 | 347 | 5.0 | 12.0 | 0.00 | 0.00 | 0.00 | 26 | 1019.9 |
| 20260906000458 | 85 | 5 | 5.0 | 12.0 | 0.00 | 0.00 | 0.00 | 25 | 1020.0 |
| 20260906000358 | 85 | 340 | 5.0 | 12.0 | 0.00 | 0.00 | 0.00 | 25 | 1020.0 |
| 20260906000322 | 85 | 340 | 5.0 | 12.0 | 0.00 | 0.00 | 0.00 | 25 | 1019.9 |
| 20260906000152 | 86 | 323 | 4.0 | 12.0 | 0.00 | 0.00 | 0.00 | 26 | 1019.9 |
| 20260906000059 | 86 | 350 | 4.0 | 9.0 | 0.00 | 0.00 | 0.00 | 26 | 1020.0 |
| 20260905235907 | 86 | 355 | 4.0 | 9.0 | 0.00 | 0.00 | 0.00 | 25 | 1019.9 |
| 20260905235900 | 86 | 345 | 3.0 | 8.0 | 0.00 | 0.00 | 0.00 | 26 | 1019.9 |
| 20260905235554 | 86 | 343 | 3.0 | 8.0 | 0.00 | 0.00 | 0.00 | 26 | 1019.9 |
| 20260905235345 | 86 | 28 | 3.0 | 5.0 | 0.00 | 0.00 | 0.00 | 25 | 1019.9 |
| 20260905235311 | 86 | 13 | 2.0 | 5.0 | 0.00 | 0.00 | 0.00 | 24 | 1019.9 |
| 20260905235140 | 86 | 36 | 2.0 | 5.0 | 0.00 | 0.00 | 0.00 | 26 | 1019.9 |
| 20260905235041 | 86 | 20 | 2.0 | 5.0 | 0.00 | 0.00 | 0.00 | 26 | 1019.9 |
| 20260905234940 | 86 | 5 | 2.0 | 5.0 | 0.00 | 0.00 | 0.00 | 26 | 1019.9 |
| 20260905234841 | 86 | 5 | 2.0 | 5.0 | 0.00 | 0.00 | 0.00 | 26 | 1019.9 |
| 20260905234657 | 86 | 9 | 2.0 | 5.0 | 0.00 | 0.00 | 0.00 | 25 | 1019.9 |
| 20260905234634 | 86 | 9 | 2.0 | 5.0 | 0.00 | 0.00 | 0.00 | 26 | 1019.9 |
| 20260905234541 | 86 | 344 | 2.0 | 5.0 | 0.00 | 0.00 | 0.00 | 26 | 1019.9 |
| 20260905234333 | 87 | 34 | 2.0 | 5.0 | 0.00 | 0.00 | 0.00 | 26 | 1020.0 |
| 20260905234232 | 87 | 32 | 2.0 | 5.0 | 0.00 | 0.00 | 0.00 | 26 | 1020.0 |
| 20260905234151 | 87 | 46 | 2.0 | 5.0 | 0.00 | 0.00 | 0.00 | 25 | 1020.0 |
| 20260905234132 | 87 | 46 | 2.0 | 5.0 | 0.00 | 0.00 | 0.00 | 25 | 1019.9 |
| 20260905234030 | 87 | 9 | 2.0 | 6.0 | 0.00 | 0.00 | 0.00 | 26 | 1020.0 |
| 20260905233930 | 87 | 9 | 3.0 | 6.0 | 0.00 | 0.00 | 0.00 | 26 | 1020.0 |
| 20260905233830 | 87 | 336 | 3.0 | 6.0 | 0.00 | 0.00 | 0.00 | 26 | 1020.0 |
| 20260905233728 | 87 | 30 | 3.0 | 6.0 | 0.00 | 0.00 | 0.00 | 25 | 1019.9 |
| 20260905233646 | 87 | 11 | 3.0 | 6.0 | 0.00 | 0.00 | 0.00 | 25 | 1019.9 |
| 20260905233626 | 87 | 32 | 3.0 | 6.0 | 0.00 | 0.00 | 0.00 | 24 | 1019.9 |
| 20260905233526 | 87 | 32 | 3.0 | 6.0 | 0.00 | 0.00 | 0.00 | 25 | 1019.9 |
| 20260905233429 | 87 | 32 | 3.0 | 6.0 | 0.00 | 0.00 | 0.00 | 24 | 1019.9 |
| 20260905233218 | 87 | 37 | 4.0 | 6.0 | 0.00 | 0.00 | 0.00 | 24 | 1019.9 |
| 20260905233123 | 87 | 38 | 4.0 | 6.0 | 0.00 | 0.00 | 0.00 | 24 | 1019.9 |
| 20260905232916 | 87 | 0 | 4.0 | 7.0 | 0.00 | 0.00 | 0.00 | 25 | 1019.9 |
| 20260905232815 | 88 | 28 | 4.0 | 7.0 | 0.00 | 0.00 | 0.00 | 24 | 1019.9 |
| 20260905232710 | 88 | 33 | 4.0 | 7.0 | 0.00 | 0.00 | 0.00 | 24 | 1019.8 |
| 20260905232634 | 88 | 32 | 3.0 | 7.0 | 0.00 | 0.00 | 0.00 | 24 | 1019.8 |
| 20260905232617 | 88 | 31 | 3.0 | 7.0 | 0.00 | 0.00 | 0.00 | 23 | 1019.8 |
| 20260905232416 | 88 | 48 | 3.0 | 7.0 | 0.00 | 0.00 | 0.00 | 24 | 1019.8 |
| 20260905232206 | 88 | 0 | 3.0 | 7.0 | 0.00 | 0.00 | 0.00 | 24 | 1019.8 |
| 20260905232128 | 88 | 355 | 3.0 | 7.0 | 0.00 | 0.00 | 0.00 | 24 | 1019.8 |
| 20260905232106 | 88 | 12 | 3.0 | 7.0 | 0.00 | 0.00 | 0.00 | 24 | 1019.8 |
| 20260905232006 | 88 | 10 | 3.0 | 7.0 | 0.00 | 0.00 | 0.00 | 24 | 1019.8 |
| 20260905231904 | 88 | 319 | 3.0 | 7.0 | 0.00 | 0.00 | 0.00 | 24 | 1019.8 |
| 20260905231803 | 88 | 343 | 3.0 | 6.0 | 0.00 | 0.00 | 0.00 | 23 | 1019.9 |
| 20260905231659 | 89 | 32 | 3.0 | 6.0 | 0.00 | 0.00 | 0.00 | 24 | 1019.8 |
| 20260905231622 | 89 | 327 | 3.0 | 6.0 | 0.00 | 0.00 | 0.00 | 24 | 1019.9 |
| 20260905231559 | 89 | 5 | 3.0 | 6.0 | 0.00 | 0.00 | 0.00 | 23 | 1019.9 |
| 20260905231459 | 89 | 351 | 3.0 | 6.0 | 0.00 | 0.00 | 0.00 | 22 | 1019.8 |
| 20260905231358 | 89 | 36 | 3.0 | 6.0 | 0.00 | 0.00 | 0.00 | 22 | 1019.8 |
| 20260905231259 | 89 | 49 | 2.0 | 6.0 | 0.00 | 0.00 | 0.00 | 23 | 1019.8 |
| 20260905231152 | 89 | 53 | 2.0 | 6.0 | 0.00 | 0.00 | 0.00 | 23 | 1019.8 |
| 20260905231116 | 89 | 80 | 2.0 | 6.0 | 0.00 | 0.00 | 0.00 | 22 | 1019.8 |
| 20260905231052 | 89 | 88 | 2.0 | 6.0 | 0.00 | 0.00 | 0.00 | 23 | 1019.8 |
| 20260905230959 | 89 | 61 | 2.0 | 6.0 | 0.00 | 0.00 | 0.00 | 23 | 1019.8 |
| 20260905230752 | 90 | 22 | 1.0 | 4.0 | 0.00 | 0.00 | 0.00 | 23 | 1019.8 |
| 20260905230650 | 90 | 320 | 1.0 | 4.0 | 0.00 | 0.00 | 0.00 | 23 | 1019.8 |
| 20260905230610 | 90 | 320 | 1.0 | 4.0 | 0.00 | 0.00 | 0.00 | 23 | 1019.8 |
| 20260905230550 | 90 | 320 | 1.0 | 4.0 | 0.00 | 0.00 | 0.00 | 23 | 1019.8 |
| 20260905230451 | 90 | 320 | 1.0 | 4.0 | 0.00 | 0.00 | 0.00 | 23 | 1019.8 |
| 20260905230400 | 90 | 69 | 2.0 | 8.0 | 0.00 | 0.00 | 0.00 | 23 | 1019.8 |
| 20260905230103 | 90 | 69 | 3.0 | 8.0 | 0.00 | 0.00 | 0.00 | 22 | 1019.8 |
| 20260905230044 | 90 | 69 | 3.0 | 8.0 | 0.00 | 0.00 | 0.00 | 22 | 1019.8 |
| 20260905225942 | 90 | 69 | 3.0 | 8.0 | 0.00 | 0.00 | 0.00 | 21 | 1019.8 |
| 20260905225846 | 90 | 46 | 4.0 | 11.0 | 0.00 | 0.00 | 0.00 | 22 | 1019.8 |
| 20260905225634 | 90 | 40 | 4.0 | 11.0 | 0.00 | 0.00 | 0.00 | 22 | 1019.7 |
| 20260905225558 | 91 | 9 | 4.0 | 11.0 | 0.00 | 0.00 | 0.00 | 22 | 1019.7 |
| 20260905225535 | 91 | 11 | 3.0 | 11.0 | 0.00 | 0.00 | 0.00 | 22 | 1019.7 |
| 20260905225434 | 91 | 40 | 3.0 | 11.0 | 0.00 | 0.00 | 0.00 | 22 | 1019.7 |
| 20260905225334 | 91 | 30 | 3.0 | 11.0 | 0.00 | 0.00 | 0.00 | 23 | 1019.7 |
| 20260905225233 | 91 | 57 | 3.0 | 11.0 | 0.00 | 0.00 | 0.00 | 22 | 1019.7 |
| 20260905225159 | 91 | 80 | 3.0 | 11.0 | 0.00 | 0.00 | 0.00 | 21 | 1019.7 |
| 20260905225028 | 91 | 148 | 2.0 | 11.0 | 0.00 | 0.00 | 0.00 | 21 | 1019.8 |
| 20260905224929 | 91 | 54 | 2.0 | 6.0 | 0.00 | 0.00 | 0.00 | 22 | 1019.7 |
| 20260905224829 | 91 | 61 | 2.0 | 6.0 | 0.00 | 0.00 | 0.00 | 22 | 1019.8 |
| 20260905224727 | 91 | 76 | 2.0 | 6.0 | 0.00 | 0.00 | 0.00 | 22 | 1019.7 |
| 20260905224624 | 90 | 81 | 2.0 | 6.0 | 0.00 | 0.00 | 0.00 | 21 | 1019.7 |
| 20260905224545 | 90 | 69 | 2.0 | 6.0 | 0.00 | 0.00 | 0.00 | 22 | 1019.7 |
| 20260905224524 | 90 | 68 | 2.0 | 6.0 | 0.00 | 0.00 | 0.00 | 22 | 1019.8 |
| 20260905224424 | 90 | 68 | 3.0 | 6.0 | 0.00 | 0.00 | 0.00 | 22 | 1019.8 |
| 20260905224331 | 90 | 69 | 3.0 | 6.0 | 0.00 | 0.00 | 0.00 | 22 | 1019.8 |
| 20260905224038 | 91 | 77 | 3.0 | 9.0 | 0.00 | 0.00 | 0.00 | 22 | 1019.7 |
| 20260905224017 | 91 | 84 | 3.0 | 9.0 | 0.00 | 0.00 | 0.00 | 22 | 1019.7 |
| 20260905223918 | 91 | 85 | 3.0 | 9.0 | 0.00 | 0.00 | 0.00 | 22 | 1019.7 |
| 20260905223816 | 91 | 85 | 3.0 | 9.0 | 0.00 | 0.00 | 0.00 | 22 | 1019.7 |
| 20260905223713 | 91 | 44 | 3.0 | 9.0 | 0.00 | 0.00 | 0.00 | 21 | 1019.8 |
| 20260905223608 | 91 | 44 | 3.0 | 9.0 | 0.00 | 0.00 | 0.00 | 21 | 1019.7 |
| 20260905223532 | 92 | 60 | 3.0 | 9.0 | 0.00 | 0.00 | 0.00 | 22 | 1019.7 |
| 20260905223509 | 92 | 19 | 3.0 | 9.0 | 0.00 | 0.00 | 0.00 | 22 | 1019.7 |
| 20260905223408 | 92 | 43 | 2.0 | 9.0 | 0.00 | 0.00 | 0.00 | 20 | 1019.8 |
| 20260905223308 | 92 | 49 | 2.0 | 9.0 | 0.00 | 0.00 | 0.00 | 21 | 1019.7 |
| 20260905223211 | 93 | 34 | 1.0 | 9.0 | 0.00 | 0.00 | 0.00 | 22 | 1019.7 |
| 20260905223025 | 93 | 29 | 1.0 | 9.0 | 0.00 | 0.00 | 0.00 | 20 | 1019.7 |
| 20260905223004 | 93 | 20 | 1.0 | 9.0 | 0.00 | 0.00 | 0.00 | 20 | 1019.7 |
| 20260905222922 | 93 | 42 | 1.0 | 9.0 | 0.00 | 0.00 | 0.00 | 19 | 1019.8 |
| 20260905222520 | 94 | 17 | 2.0 | 5.0 | 0.00 | 0.00 | 0.00 | 19 | 1019.7 |
| 20260905222500 | 94 | 266 | 2.0 | 5.0 | 0.00 | 0.00 | 0.00 | 19 | 1019.7 |
| 20260905222400 | 94 | 46 | 2.0 | 8.0 | 0.00 | 0.00 | 0.00 | 19 | 1019.8 |
| 20260905222305 | 94 | 46 | 2.0 | 8.0 | 0.00 | 0.00 | 0.00 | 21 | 1019.7 |
| 20260905222057 | 94 | 329 | 3.0 | 9.0 | 0.00 | 0.00 | 0.00 | 21 | 1019.8 |
| 20260905222013 | 94 | 329 | 3.0 | 9.0 | 0.00 | 0.00 | 0.00 | 20 | 1019.8 |
| 20260905221954 | 94 | 329 | 3.0 | 9.0 | 0.00 | 0.00 | 0.00 | 20 | 1019.8 |
| 20260905221852 | 94 | 344 | 3.0 | 9.0 | 0.00 | 0.00 | 0.00 | 21 | 1019.8 |
| 20260905221752 | 94 | 9 | 3.0 | 9.0 | 0.00 | 0.00 | 0.00 | 20 | 1019.8 |
| 20260905221650 | 94 | 9 | 3.0 | 9.0 | 0.00 | 0.00 | 0.00 | 20 | 1019.9 |
| 20260905221546 | 94 | 26 | 3.0 | 9.0 | 0.00 | 0.00 | 0.00 | 20 | 1019.8 |
| 20260905221508 | 94 | 57 | 3.0 | 9.0 | 0.00 | 0.00 | 0.00 | 21 | 1019.9 |
| 20260905221447 | 94 | 59 | 3.0 | 9.0 | 0.00 | 0.00 | 0.00 | 21 | 1019.9 |
| 20260905221346 | 94 | 44 | 2.0 | 9.0 | 0.00 | 0.00 | 0.00 | 22 | 1019.9 |
| 20260905221246 | 94 | 339 | 2.0 | 9.0 | 0.00 | 0.00 | 0.00 | 21 | 1019.9 |
| 20260905221143 | 94 | 338 | 2.0 | 6.0 | 0.00 | 0.00 | 0.00 | 23 | 1019.8 |
| 20260905221109 | 93 | 265 | 2.0 | 4.0 | 0.00 | 0.00 | 0.00 | 21 | 1019.9 |
| 20260905220938 | 93 | 255 | 2.0 | 4.0 | 0.00 | 0.00 | 0.00 | 21 | 1019.9 |
| 20260905220838 | 93 | 274 | 1.0 | 4.0 | 0.00 | 0.00 | 0.00 | 22 | 1019.9 |
| 20260905220738 | 93 | 207 | 1.0 | 4.0 | 0.00 | 0.00 | 0.00 | 22 | 1019.9 |
| 20260905220638 | 92 | 204 | 1.0 | 4.0 | 0.00 | 0.00 | 0.00 | 22 | 1019.8 |
| 20260905220432 | 92 | 90 | 1.0 | 4.0 | 0.00 | 0.00 | 0.00 | 22 | 1019.9 |
| 20260905220339 | 92 | 159 | 1.0 | 4.0 | 0.00 | 0.00 | 0.00 | 23 | 1019.9 |
| 20260905220132 | 91 | 81 | 1.0 | 4.0 | 0.00 | 0.00 | 0.00 | 22 | 1019.9 |
| 20260905220028 | 91 | 81 | 2.0 | 4.0 | 0.00 | 0.00 | 0.00 | 21 | 1019.9 |
| 20260905215929 | 91 | 81 | 2.0 | 4.0 | 0.00 | 0.00 | 0.00 | 23 | 1019.9 |
| 20260905215828 | 91 | 81 | 2.0 | 5.0 | 0.00 | 0.00 | 0.00 | 22 | 1020.0 |
| 20260905215728 | 90 | 81 | 3.0 | 9.0 | 0.00 | 0.00 | 0.00 | 21 | 1020.0 |
| 20260905215625 | 90 | 81 | 4.0 | 9.0 | 0.00 | 0.00 | 0.00 | 21 | 1020.0 |
| 20260905215520 | 90 | 81 | 4.0 | 9.0 | 0.00 | 0.00 | 0.00 | 22 | 1020.0 |
| 20260905215427 | 90 | 81 | 4.0 | 9.0 | 0.00 | 0.00 | 0.00 | 21 | 1020.0 |
| 20260905215220 | 90 | 78 | 5.0 | 11.0 | 0.00 | 0.00 | 0.00 | 22 | 1020.0 |
| 20260905215119 | 90 | 76 | 5.0 | 11.0 | 0.00 | 0.00 | 0.00 | 21 | 1020.0 |
| 20260905215020 | 91 | 79 | 5.0 | 11.0 | 0.00 | 0.00 | 0.00 | 21 | 1020.2 |
| 20260905214938 | 91 | 68 | 4.0 | 11.0 | 0.00 | 0.00 | 0.00 | 21 | 1020.2 |
| 20260905214918 | 91 | 65 | 4.0 | 11.0 | 0.00 | 0.00 | 0.00 | 21 | 1020.2 |
| 20260905214828 | 91 | 76 | 4.0 | 11.0 | 0.00 | 0.00 | 0.00 | 21 | 1020.2 |
| 20260905214510 | 92 | 65 | 4.0 | 11.0 | 0.00 | 0.00 | 0.00 | 20 | 1020.2 |
| 20260905214431 | 93 | 12 | 4.0 | 11.0 | 0.00 | 0.00 | 0.00 | 20 | 1020.2 |
| 20260905214408 | 93 | 44 | 4.0 | 11.0 | 0.00 | 0.00 | 0.00 | 20 | 1020.2 |
| 20260905214316 | 93 | 71 | 3.0 | 10.0 | 0.00 | 0.00 | 0.00 | 20 | 1020.2 |
| 20260905214140 | 93 | 24 | 3.0 | 9.0 | 0.00 | 0.00 | 0.00 | 20 | 1020.2 |
| 20260905213902 | 93 | 24 | 3.0 | 9.0 | 0.00 | 0.00 | 0.00 | 20 | 1020.3 |
| 20260905213809 | 94 | 350 | 3.0 | 9.0 | 0.00 | 0.00 | 0.00 | 21 | 1020.3 |
| 20260905213601 | 94 | 52 | 2.0 | 9.0 | 0.00 | 0.00 | 0.00 | 21 | 1020.2 |
| 20260905213457 | 94 | 81 | 2.0 | 9.0 | 0.00 | 0.00 | 0.00 | 21 | 1020.2 |
| 20260905213420 | 94 | 37 | 2.0 | 9.0 | 0.00 | 0.00 | 0.00 | 19 | 1020.2 |
| 20260905213403 | 94 | 37 | 2.0 | 9.0 | 0.00 | 0.00 | 0.00 | 19 | 1020.2 |
| 20260905213156 | 94 | 132 | 3.0 | 7.0 | 0.00 | 0.00 | 0.00 | 21 | 1020.3 |
| 20260905213055 | 93 | 138 | 3.0 | 7.0 | 0.00 | 0.00 | 0.00 | 21 | 1020.3 |
| 20260905213001 | 93 | 113 | 3.0 | 12.0 | 0.00 | 0.00 | 0.00 | 19 | 1020.3 |
| 20260905212955 | 93 | 142 | 4.0 | 12.0 | 0.00 | 0.00 | 0.00 | 19 | 1020.4 |
| 20260905212750 | 93 | 190 | 5.0 | 13.0 | 0.00 | 0.00 | 0.00 | 20 | 1020.3 |
| 20260905212656 | 93 | 190 | 6.0 | 13.0 | 0.00 | 0.00 | 0.00 | 23 | 1020.3 |
| 20260905212443 | 93 | 332 | 6.0 | 13.0 | 0.00 | 0.00 | 0.00 | 21 | 1020.4 |
| 20260905212408 | 93 | 34 | 6.0 | 13.0 | 0.00 | 0.00 | 0.00 | 21 | 1020.4 |
| 20260905212344 | 93 | 27 | 6.0 | 13.0 | 0.00 | 0.00 | 0.00 | 20 | 1020.4 |
| 20260905212257 | 93 | 42 | 7.0 | 13.0 | 0.00 | 0.00 | 0.00 | 19 | 1020.5 |
| 20260905211949 | 94 | 88 | 5.0 | 13.0 | 0.00 | 0.00 | 0.00 | 20 | 1020.5 |
| 20260905211942 | 94 | 78 | 5.0 | 13.0 | 0.00 | 0.00 | 0.00 | 20 | 1020.5 |
| 20260905211738 | 94 | 72 | 4.0 | 11.0 | 0.00 | 0.00 | 0.00 | 21 | 1020.5 |
| 20260905211638 | 94 | 57 | 4.0 | 11.0 | 0.00 | 0.00 | 0.00 | 22 | 1020.5 |
| 20260905211537 | 94 | 98 | 3.0 | 10.0 | 0.00 | 0.00 | 0.00 | 21 | 1020.5 |
| 20260905211503 | 94 | 44 | 3.0 | 10.0 | 0.00 | 0.00 | 0.00 | 21 | 1020.6 |
| 20260905211339 | 94 | 90 | 2.0 | 10.0 | 0.00 | 0.00 | 0.00 | 21 | 1020.5 |
| 20260905211131 | 94 | 333 | 2.0 | 10.0 | 0.00 | 0.00 | 0.00 | 21 | 1020.5 |
| 20260905211032 | 94 | 327 | 2.0 | 10.0 | 0.00 | 0.00 | 0.00 | 21 | 1020.6 |
| 20260905210956 | 94 | 33 | 3.0 | 10.0 | 0.00 | 0.00 | 0.00 | 20 | 1020.6 |
| 20260905210828 | 94 | 40 | 3.0 | 10.0 | 0.00 | 0.00 | 0.00 | 19 | 1020.6 |
| 20260905210728 | 94 | 123 | 3.0 | 10.0 | 0.00 | 0.00 | 0.00 | 20 | 1020.6 |
| 20260905210627 | 94 | 111 | 3.0 | 7.0 | 0.00 | 0.00 | 0.00 | 19 | 1020.6 |
| 20260905210526 | 93 | 111 | 3.0 | 7.0 | 0.00 | 0.00 | 0.00 | 19 | 1020.6 |
| 20260905210426 | 93 | 111 | 3.0 | 7.0 | 0.00 | 0.00 | 0.00 | 20 | 1020.6 |
| 20260905210343 | 93 | 267 | 3.0 | 7.0 | 0.00 | 0.00 | 0.00 | 20 | 1020.6 |
| 20260905210324 | 93 | 267 | 3.0 | 7.0 | 0.00 | 0.00 | 0.00 | 21 | 1020.6 |
| 20260905210224 | 93 | 267 | 3.0 | 7.0 | 0.00 | 0.00 | 0.00 | 21 | 1020.5 |
| 20260905210121 | 93 | 319 | 3.0 | 8.0 | 0.00 | 0.00 | 0.00 | 22 | 1020.6 |
| 20260905210023 | 93 | 255 | 3.0 | 8.0 | 0.00 | 0.00 | 0.00 | 22 | 1020.6 |
| 20260905205837 | 92 | 299 | 3.0 | 8.0 | 0.00 | 0.00 | 0.00 | 21 | 1020.6 |
| 20260905205814 | 92 | 252 | 3.0 | 8.0 | 0.00 | 0.00 | 0.00 | 21 | 1020.6 |
| 20260905205714 | 92 | 260 | 3.0 | 9.0 | 0.00 | 0.00 | 0.00 | 23 | 1020.6 |
| 20260905205613 | 92 | 317 | 4.0 | 9.0 | 0.00 | 0.00 | 0.00 | 20 | 1020.6 |
| 20260905205514 | 92 | 317 | 4.0 | 10.0 | 0.00 | 0.00 | 0.00 | 20 | 1020.6 |
| 20260905205408 | 92 | 317 | 5.0 | 10.0 | 0.00 | 0.00 | 0.00 | 21 | 1020.6 |
| 20260905205331 | 92 | 309 | 5.0 | 10.0 | 0.00 | 0.00 | 0.00 | 21 | 1020.6 |
| 20260905205308 | 92 | 307 | 5.0 | 10.0 | 0.00 | 0.00 | 0.00 | 22 | 1020.6 |
| 20260905205214 | 92 | 306 | 5.0 | 10.0 | 0.00 | 0.00 | 0.00 | 23 | 1020.6 |
| 20260905205008 | 92 | 113 | 6.0 | 10.0 | 0.00 | 0.00 | 0.00 | 21 | 1020.7 |
| 20260905204902 | 92 | 73 | 6.0 | 10.0 | 0.00 | 0.00 | 0.00 | 21 | 1020.7 |
| 20260905204825 | 92 | 71 | 5.0 | 10.0 | 0.00 | 0.00 | 0.00 | 21 | 1020.7 |
| 20260905204801 | 92 | 46 | 5.0 | 10.0 | 0.00 | 0.00 | 0.00 | 21 | 1020.7 |
| 20260905204709 | 92 | 14 | 5.0 | 10.0 | 0.00 | 0.00 | 0.00 | 23 | 1020.7 |
| 20260905204501 | 92 | 15 | 5.0 | 10.0 | 0.00 | 0.00 | 0.00 | 21 | 1020.7 |
| 20260905204355 | 92 | 38 | 5.0 | 10.0 | 0.00 | 0.00 | 0.00 | 23 | 1020.7 |
| 20260905204320 | 92 | 341 | 4.0 | 10.0 | 0.00 | 0.00 | 0.00 | 23 | 1020.7 |
| 20260905204255 | 92 | 332 | 4.0 | 10.0 | 0.00 | 0.00 | 0.00 | 22 | 1020.7 |
| 20260905204156 | 92 | 30 | 4.0 | 10.0 | 0.00 | 0.00 | 0.00 | 23 | 1020.9 |
| 20260905204102 | 92 | 41 | 4.0 | 10.0 | 0.00 | 0.00 | 0.00 | 21 | 1020.7 |
| 20260905203853 | 92 | 324 | 4.0 | 10.0 | 0.00 | 0.00 | 0.00 | 21 | 1020.9 |
| 20260905203814 | 92 | 297 | 4.0 | 10.0 | 0.00 | 0.00 | 0.00 | 21 | 1020.9 |
| 20260905203752 | 92 | 292 | 4.0 | 10.0 | 0.00 | 0.00 | 0.00 | 21 | 1020.9 |
| 20260905203652 | 92 | 338 | 4.0 | 10.0 | 0.00 | 0.00 | 0.00 | 22 | 1021.0 |
| 20260905203551 | 92 | 342 | 4.0 | 10.0 | 0.00 | 0.00 | 0.00 | 22 | 1020.9 |
| 20260905203450 | 92 | 50 | 4.0 | 10.0 | 0.00 | 0.00 | 0.00 | 22 | 1020.9 |
| 20260905203403 | 91 | 36 | 4.0 | 10.0 | 0.00 | 0.00 | 0.00 | 23 | 1020.9 |
| 20260905203356 | 91 | 328 | 4.0 | 10.0 | 0.00 | 0.00 | 0.00 | 24 | 1021.0 |
| 20260905203043 | 91 | 31 | 5.0 | 11.0 | 0.00 | 0.00 | 0.00 | 25 | 1021.0 |
| 20260905202944 | 91 | 15 | 6.0 | 11.0 | 0.00 | 0.00 | 0.00 | 21 | 1021.0 |
| 20260905202840 | 91 | 72 | 6.0 | 12.0 | 0.00 | 0.00 | 0.00 | 21 | 1021.0 |
| 20260905202801 | 91 | 49 | 6.0 | 12.0 | 0.00 | 0.00 | 0.00 | 22 | 1021.1 |
| 20260905202740 | 91 | 51 | 6.0 | 12.0 | 0.00 | 0.00 | 0.00 | 22 | 1021.1 |
| 20260905202640 | 91 | 98 | 6.0 | 12.0 | 0.00 | 0.00 | 0.00 | 22 | 1021.1 |
| 20260905202546 | 90 | 57 | 6.0 | 12.0 | 0.00 | 0.00 | 0.00 | 24 | 1021.1 |
| 20260905202333 | 90 | 17 | 6.0 | 12.0 | 0.00 | 0.00 | 0.00 | 22 | 1021.2 |
| 20260905202256 | 90 | 30 | 6.0 | 12.0 | 0.00 | 0.00 | 0.00 | 23 | 1021.2 |
| 20260905202234 | 90 | 330 | 6.0 | 12.0 | 0.00 | 0.00 | 0.00 | 22 | 1021.1 |
| 20260905202141 | 90 | 0 | 6.0 | 12.0 | 0.00 | 0.00 | 0.00 | 22 | 1021.2 |
| 20260905201931 | 90 | 23 | 5.0 | 12.0 | 0.00 | 0.00 | 0.00 | 22 | 1021.1 |
| 20260905201827 | 90 | 39 | 5.0 | 11.0 | 0.00 | 0.00 | 0.00 | 23 | 1021.1 |
| 20260905201749 | 90 | 51 | 5.0 | 11.0 | 0.00 | 0.00 | 0.00 | 22 | 1021.1 |
| 20260905201726 | 90 | 67 | 5.0 | 11.0 | 0.00 | 0.00 | 0.00 | 22 | 1021.1 |
| 20260905201632 | 90 | 73 | 5.0 | 11.0 | 0.00 | 0.00 | 0.00 | 23 | 1021.1 |
| 20260905201426 | 90 | 62 | 5.0 | 10.0 | 0.00 | 0.00 | 0.00 | 25 | 1021.2 |
| 20260905201323 | 90 | 346 | 5.0 | 10.0 | 0.00 | 0.00 | 0.00 | 23 | 1021.1 |
| 20260905201243 | 90 | 126 | 6.0 | 10.0 | 0.00 | 0.00 | 0.00 | 22 | 1021.1 |
| 20260905201224 | 90 | 112 | 6.0 | 10.0 | 0.00 | 0.00 | 0.00 | 22 | 1021.2 |
| 20260905201122 | 90 | 111 | 6.0 | 10.0 | 0.00 | 0.00 | 0.00 | 22 | 1021.2 |
| 20260905201022 | 90 | 47 | 6.0 | 10.0 | 0.00 | 0.00 | 0.00 | 22 | 1021.2 |
| 20260905200920 | 90 | 57 | 6.0 | 10.0 | 0.00 | 0.00 | 0.00 | 21 | 1021.2 |
| 20260905200814 | 90 | 102 | 5.0 | 10.0 | 0.00 | 0.00 | 0.00 | 22 | 1021.2 |
| 20260905200737 | 90 | 101 | 5.0 | 10.0 | 0.00 | 0.00 | 0.00 | 22 | 1021.2 |
| 20260905200720 | 90 | 114 | 5.0 | 10.0 | 0.00 | 0.00 | 0.00 | 23 | 1021.2 |
| 20260905200514 | 90 | 53 | 5.0 | 10.0 | 0.00 | 0.00 | 0.00 | 24 | 1021.2 |
| 20260905200413 | 90 | 49 | 5.0 | 11.0 | 0.00 | 0.00 | 0.00 | 23 | 1021.2 |
| 20260905200320 | 90 | 86 | 5.0 | 11.0 | 0.00 | 0.00 | 0.00 | 23 | 1021.2 |
| 20260905200314 | 90 | 53 | 5.0 | 11.0 | 0.00 | 0.00 | 0.00 | 22 | 1021.3 |
| 20260905200110 | 91 | 44 | 5.0 | 11.0 | 0.00 | 0.00 | 0.00 | 22 | 1021.3 |
| 20260905200009 | 90 | 68 | 4.0 | 11.0 | 0.00 | 0.00 | 0.00 | 23 | 1021.3 |
| 20260905195909 | 90 | 138 | 5.0 | 11.0 | 0.00 | 0.00 | 0.00 | 23 | 1021.3 |
| 20260905195803 | 90 | 166 | 5.0 | 11.0 | 0.00 | 0.00 | 0.00 | 23 | 1021.3 |
| 20260905195726 | 90 | 105 | 5.0 | 11.0 | 0.00 | 0.00 | 0.00 | 23 | 1021.3 |
| 20260905195702 | 90 | 114 | 5.0 | 11.0 | 0.00 | 0.00 | 0.00 | 23 | 1021.3 |
| 20260905195602 | 90 | 157 | 5.0 | 11.0 | 0.00 | 0.00 | 0.00 | 23 | 1021.3 |
| 20260905195526 | 90 | 46 | 5.0 | 11.0 | 0.00 | 0.00 | 0.00 | 22 | 1021.5 |
| 20260905195519 | 90 | 67 | 4.0 | 10.0 | 0.00 | 0.00 | 0.00 | 22 | 1021.5 |
| 20260905195102 | 90 | 67 | 3.0 | 10.0 | 0.00 | 0.00 | 0.00 | 23 | 1021.5 |
| 20260905195002 | 90 | 25 | 3.0 | 10.0 | 0.00 | 0.00 | 0.00 | 23 | 1021.5 |
| 20260905194859 | 90 | 40 | 4.0 | 11.0 | 0.00 | 0.00 | 0.00 | 23 | 1021.5 |
| 20260905194800 | 89 | 34 | 4.0 | 11.0 | 0.00 | 0.00 | 0.00 | 24 | 1021.5 |
| 20260905194714 | 89 | 45 | 3.0 | 11.0 | 0.00 | 0.00 | 0.00 | 25 | 1021.5 |
| 20260905194658 | 89 | 49 | 3.0 | 11.0 | 0.00 | 0.00 | 0.00 | 25 | 1021.5 |
| 20260905194556 | 89 | 37 | 3.0 | 11.0 | 0.00 | 0.00 | 0.00 | 25 | 1021.3 |
| 20260905194456 | 89 | 109 | 3.0 | 11.0 | 0.00 | 0.00 | 0.00 | 24 | 1021.5 |
| 20260905194355 | 89 | 156 | 3.0 | 11.0 | 0.00 | 0.00 | 0.00 | 24 | 1021.5 |
| 20260905194254 | 89 | 156 | 4.0 | 11.0 | 0.00 | 0.00 | 0.00 | 26 | 1021.5 |
| 20260905194208 | 89 | 156 | 4.0 | 11.0 | 0.00 | 0.00 | 0.00 | 26 | 1021.6 |
| 20260905194154 | 89 | 157 | 4.0 | 11.0 | 0.00 | 0.00 | 0.00 | 26 | 1021.6 |
| 20260905194054 | 89 | 113 | 4.0 | 11.0 | 0.00 | 0.00 | 0.00 | 25 | 1021.6 |
| 20260905193954 | 89 | 58 | 4.0 | 12.0 | 0.00 | 0.00 | 0.00 | 23 | 1021.6 |
| 20260905193854 | 89 | 68 | 4.0 | 12.0 | 0.00 | 0.00 | 0.00 | 23 | 1021.6 |
| 20260905193752 | 89 | 169 | 5.0 | 12.0 | 0.00 | 0.00 | 0.00 | 23 | 1021.6 |
| 20260905193701 | 89 | 138 | 5.0 | 14.0 | 0.00 | 0.00 | 0.00 | 23 | 1021.6 |
| 20260905193649 | 89 | 135 | 5.0 | 14.0 | 0.00 | 0.00 | 0.00 | 23 | 1021.6 |
| 20260905193549 | 89 | 142 | 6.0 | 14.0 | 0.00 | 0.00 | 0.00 | 22 | 1021.7 |
| 20260905193450 | 89 | 56 | 6.0 | 14.0 | 0.00 | 0.00 | 0.00 | 23 | 1021.7 |
| 20260905193350 | 89 | 84 | 6.0 | 14.0 | 0.00 | 0.00 | 0.00 | 23 | 1021.7 |
| 20260905193249 | 89 | 74 | 6.0 | 14.0 | 0.00 | 0.00 | 0.00 | 23 | 1021.7 |
| 20260905193156 | 89 | 131 | 6.0 | 14.0 | 0.00 | 0.00 | 0.00 | 22 | 1021.7 |
| 20260905193148 | 89 | 105 | 6.0 | 14.0 | 0.00 | 0.00 | 0.00 | 22 | 1021.7 |
| 20260905193047 | 89 | 79 | 6.0 | 14.0 | 0.00 | 0.00 | 0.00 | 23 | 1021.7 |
| 20260905192948 | 89 | 79 | 6.0 | 14.0 | 0.00 | 0.00 | 0.00 | 24 | 1021.7 |
| 20260905192848 | 89 | 93 | 6.0 | 14.0 | 0.00 | 0.00 | 0.00 | 23 | 1021.6 |
| 20260905192747 | 89 | 92 | 6.0 | 14.0 | 0.00 | 0.00 | 0.00 | 24 | 1021.7 |
| 20260905192657 | 89 | 34 | 5.0 | 11.0 | 0.00 | 0.00 | 0.00 | 24 | 1021.6 |
| 20260905192652 | 89 | 49 | 5.0 | 11.0 | 0.00 | 0.00 | 0.00 | 24 | 1021.6 |
| 20260905192453 | 89 | 350 | 5.0 | 14.0 | 0.00 | 0.00 | 0.00 | 23 | 1021.6 |
| 20260905192244 | 89 | 26 | 6.0 | 14.0 | 0.00 | 0.00 | 0.00 | 25 | 1021.7 |
| 20260905192155 | 89 | 61 | 6.0 | 14.0 | 0.00 | 0.00 | 0.00 | 24 | 1021.7 |
| 20260905192151 | 90 | 76 | 6.0 | 14.0 | 0.00 | 0.00 | 0.00 | 24 | 1021.7 |
| 20260905191944 | 90 | 38 | 6.0 | 14.0 | 0.00 | 0.00 | 0.00 | 25 | 1021.8 |
| 20260905191843 | 90 | 49 | 6.0 | 14.0 | 0.00 | 0.00 | 0.00 | 23 | 1021.7 |
| 20260905191759 | 90 | 42 | 7.0 | 14.0 | 0.00 | 0.00 | 0.00 | 24 | 1021.7 |
| 20260905191644 | 90 | 69 | 8.0 | 14.0 | 0.00 | 0.00 | 0.00 | 24 | 1021.8 |
| 20260905191544 | 90 | 44 | 8.0 | 14.0 | 0.00 | 0.00 | 0.00 | 24 | 1021.8 |
| 20260905191444 | 90 | 58 | 9.0 | 15.0 | 0.00 | 0.00 | 0.00 | 23 | 1021.7 |
| 20260905191343 | 90 | 38 | 9.0 | 17.0 | 0.00 | 0.00 | 0.00 | 22 | 1021.8 |
| 20260905191244 | 90 | 58 | 9.0 | 17.0 | 0.00 | 0.00 | 0.00 | 22 | 1021.8 |
| 20260905191152 | 90 | 28 | 9.0 | 17.0 | 0.00 | 0.00 | 0.00 | 24 | 1021.8 |
| 20260905191143 | 90 | 30 | 9.0 | 17.0 | 0.00 | 0.00 | 0.00 | 24 | 1021.8 |
| 20260905191044 | 90 | 76 | 9.0 | 17.0 | 0.00 | 0.00 | 0.00 | 23 | 1021.8 |
| 20260905190944 | 90 | 92 | 9.0 | 17.0 | 0.00 | 0.00 | 0.00 | 23 | 1021.8 |
| 20260905190838 | 90 | 59 | 9.0 | 17.0 | 0.00 | 0.00 | 0.00 | 22 | 1021.8 |
| 20260905190737 | 90 | 88 | 8.0 | 17.0 | 0.00 | 0.00 | 0.00 | 22 | 1021.8 |
| 20260905190652 | 90 | 87 | 8.0 | 17.0 | 0.00 | 0.00 | 0.00 | 23 | 1021.8 |
| 20260905190637 | 90 | 85 | 8.0 | 17.0 | 0.00 | 0.00 | 0.00 | 23 | 1021.8 |
| 20260905190546 | 90 | 83 | 8.0 | 17.0 | 0.00 | 0.00 | 0.00 | 24 | 1021.8 |
| 20260905190344 | 89 | 101 | 6.0 | 12.0 | 0.00 | 0.00 | 0.00 | 25 | 1021.8 |
| 20260905190155 | 89 | 86 | 5.0 | 12.0 | 0.00 | 0.00 | 0.00 | 23 | 1021.8 |
| 20260905190145 | 89 | 87 | 5.0 | 12.0 | 0.00 | 0.00 | 0.00 | 23 | 1021.8 |
| 20260905185936 | 89 | 96 | 6.0 | 13.0 | 0.00 | 0.00 | 0.00 | 23 | 1021.8 |
| 20260905185834 | 89 | 48 | 6.0 | 14.0 | 0.00 | 0.00 | 0.00 | 24 | 1021.8 |
| 20260905185733 | 89 | 11 | 7.0 | 14.0 | 0.00 | 0.00 | 0.00 | 23 | 1021.8 |
| 20260905185654 | 90 | 57 | 7.0 | 14.0 | 0.00 | 0.00 | 0.00 | 22 | 1021.8 |
| 20260905185633 | 90 | 44 | 7.0 | 14.0 | 0.00 | 0.00 | 0.00 | 22 | 1021.8 |
| 20260905185533 | 90 | 77 | 7.0 | 15.0 | 0.00 | 0.00 | 0.00 | 23 | 1021.9 |
| 20260905185434 | 90 | 30 | 8.0 | 15.0 | 0.00 | 0.00 | 0.00 | 23 | 1021.9 |
| 20260905185334 | 90 | 67 | 8.0 | 15.0 | 0.00 | 0.00 | 0.00 | 23 | 1021.9 |
| 20260905185232 | 90 | 32 | 8.0 | 15.0 | 0.00 | 0.00 | 0.00 | 23 | 1021.9 |
| 20260905185154 | 89 | 65 | 8.0 | 15.0 | 0.00 | 0.00 | 0.00 | 23 | 1021.9 |
| 20260905185131 | 89 | 53 | 7.0 | 15.0 | 0.00 | 0.00 | 0.00 | 23 | 1021.9 |
| 20260905185038 | 89 | 72 | 6.0 | 15.0 | 0.00 | 0.00 | 0.00 | 22 | 1021.9 |
| 20260905184831 | 90 | 74 | 5.0 | 15.0 | 0.00 | 0.00 | 0.00 | 23 | 1021.8 |
| 20260905184732 | 90 | 63 | 5.0 | 15.0 | 0.00 | 0.00 | 0.00 | 22 | 1021.8 |
| 20260905184652 | 90 | 38 | 5.0 | 15.0 | 0.00 | 0.00 | 0.00 | 23 | 1021.8 |
| 20260905184629 | 90 | 46 | 5.0 | 15.0 | 0.00 | 0.00 | 0.00 | 23 | 1021.9 |
| 20260905184535 | 90 | 55 | 5.0 | 11.0 | 0.00 | 0.00 | 0.00 | 24 | 1021.8 |
| 20260905184328 | 90 | 36 | 5.0 | 12.0 | 0.00 | 0.00 | 0.00 | 24 | 1021.8 |
| 20260905184225 | 90 | 50 | 6.0 | 12.0 | 0.00 | 0.00 | 0.00 | 25 | 1021.8 |
| 20260905184150 | 90 | 64 | 6.0 | 12.0 | 0.00 | 0.00 | 0.00 | 23 | 1021.8 |
| 20260905184128 | 89 | 74 | 6.0 | 12.0 | 0.00 | 0.00 | 0.00 | 23 | 1021.8 |
| 20260905183922 | 89 | 80 | 7.0 | 12.0 | 0.00 | 0.00 | 0.00 | 23 | 1021.8 |
| 20260905183822 | 89 | 113 | 7.0 | 12.0 | 0.00 | 0.00 | 0.00 | 24 | 1021.8 |
| 20260905183719 | 89 | 173 | 6.0 | 12.0 | 0.00 | 0.00 | 0.00 | 24 | 1021.9 |
| 20260905183650 | 89 | 120 | 6.0 | 12.0 | 0.00 | 0.00 | 0.00 | 24 | 1021.9 |
| 20260905183625 | 89 | 156 | 6.0 | 12.0 | 0.00 | 0.00 | 0.00 | 24 | 1021.9 |
| 20260905183417 | 89 | 72 | 5.0 | 11.0 | 0.00 | 0.00 | 0.00 | 25 | 1021.9 |
| 20260905183318 | 89 | 29 | 5.0 | 11.0 | 0.00 | 0.00 | 0.00 | 24 | 1021.9 |
| 20260905183218 | 89 | 336 | 5.0 | 11.0 | 0.00 | 0.00 | 0.00 | 23 | 1022.0 |
| 20260905183150 | 89 | 36 | 5.0 | 11.0 | 0.00 | 0.00 | 0.00 | 23 | 1022.0 |
| 20260905183118 | 89 | 66 | 5.0 | 11.0 | 0.00 | 0.00 | 0.00 | 23 | 1022.0 |
| 20260905183018 | 89 | 25 | 5.0 | 11.0 | 0.00 | 0.00 | 0.00 | 24 | 1022.0 |
| 20260905182918 | 89 | 91 | 4.0 | 11.0 | 0.00 | 0.00 | 0.00 | 26 | 1022.0 |
| 20260905182818 | 89 | 62 | 4.0 | 11.0 | 0.00 | 0.00 | 0.00 | 26 | 1021.9 |
| 20260905182754 | 89 | 112 | 4.0 | 11.0 | 0.00 | 0.00 | 0.00 | 24 | 1022.0 |
| 20260905182616 | 89 | 65 | 4.0 | 11.0 | 0.00 | 0.00 | 0.00 | 26 | 1022.0 |
| 20260905182516 | 89 | 83 | 4.0 | 11.0 | 0.00 | 0.00 | 0.00 | 25 | 1022.0 |
| 20260905182430 | 89 | 73 | 4.0 | 11.0 | 0.00 | 0.00 | 0.00 | 25 | 1022.2 |
| 20260905182149 | 89 | 74 | 4.0 | 9.0 | 0.00 | 0.00 | 0.00 | 25 | 1022.2 |
| 20260905182115 | 89 | 115 | 3.0 | 9.0 | 0.00 | 0.00 | 0.00 | 25 | 1022.0 |
| 20260905182016 | 89 | 69 | 3.0 | 9.0 | 0.00 | 0.00 | 0.00 | 25 | 1022.0 |
| 20260905181911 | 88 | 92 | 3.0 | 9.0 | 0.00 | 0.00 | 0.00 | 26 | 1022.0 |
| 20260905181812 | 88 | 132 | 4.0 | 9.0 | 0.00 | 0.00 | 0.00 | 26 | 1022.0 |
| 20260905181754 | 88 | 130 | 4.0 | 9.0 | 0.00 | 0.00 | 0.00 | 26 | 1022.0 |
| 20260905181610 | 87 | 174 | 4.0 | 10.0 | 0.00 | 0.00 | 0.00 | 28 | 1022.0 |
| 20260905181507 | 87 | 185 | 4.0 | 10.0 | 0.00 | 0.00 | 0.00 | 28 | 1022.2 |
| 20260905181405 | 87 | 113 | 5.0 | 10.0 | 0.00 | 0.00 | 0.00 | 27 | 1022.0 |
| 20260905181306 | 87 | 92 | 5.0 | 10.0 | 0.00 | 0.00 | 0.00 | 27 | 1022.0 |
| 20260905181206 | 87 | 119 | 4.0 | 10.0 | 0.00 | 0.00 | 0.00 | 27 | 1022.2 |
| 20260905181144 | 87 | 98 | 4.0 | 10.0 | 0.00 | 0.00 | 0.00 | 28 | 1022.2 |
| 20260905181120 | 87 | 82 | 4.0 | 10.0 | 0.00 | 0.00 | 0.00 | 28 | 1022.0 |
| 20260905180806 | 87 | 118 | 5.0 | 10.0 | 0.00 | 0.00 | 0.00 | 29 | 1022.3 |
| 20260905180742 | 87 | 90 | 5.0 | 10.0 | 0.00 | 0.00 | 0.00 | 26 | 1022.2 |
| 20260905180606 | 87 | 109 | 5.0 | 10.0 | 0.00 | 0.00 | 0.00 | 27 | 1022.3 |
| 20260905180505 | 87 | 105 | 5.0 | 10.0 | 0.00 | 0.00 | 0.00 | 27 | 1022.2 |
| 20260905180405 | 87 | 151 | 5.0 | 10.0 | 0.00 | 0.00 | 0.00 | 26 | 1022.3 |
| 20260905180306 | 88 | 126 | 6.0 | 10.0 | 0.00 | 0.00 | 0.00 | 25 | 1022.3 |
| 20260905180205 | 88 | 96 | 6.0 | 10.0 | 0.00 | 0.00 | 0.00 | 25 | 1022.3 |
| 20260905180134 | 88 | 96 | 6.0 | 10.0 | 0.00 | 0.00 | 0.00 | 26 | 1022.2 |
| 20260905180105 | 88 | 94 | 6.0 | 10.0 | 0.00 | 0.00 | 0.00 | 26 | 1022.2 |
| 20260905180012 | 88 | 92 | 5.0 | 10.0 | 0.00 | 0.00 | 0.00 | 26 | 1022.3 |
| 20260905175805 | 88 | 111 | 6.0 | 11.0 | 0.00 | 0.00 | 0.00 | 27 | 1022.3 |
| 20260905175704 | 88 | 136 | 5.0 | 11.0 | 0.00 | 0.00 | 0.00 | 26 | 1022.3 |
| 20260905175635 | 88 | 158 | 5.0 | 11.0 | 0.00 | 0.00 | 0.00 | 26 | 1022.3 |
| 20260905175603 | 88 | 103 | 5.0 | 11.0 | 0.00 | 0.00 | 0.00 | 26 | 1022.3 |
| 20260905175510 | 88 | 121 | 6.0 | 11.0 | 0.00 | 0.00 | 0.00 | 28 | 1022.3 |
| 20260905175306 | 87 | 127 | 5.0 | 11.0 | 0.00 | 0.00 | 0.00 | 29 | 1022.3 |
| 20260905175201 | 87 | 175 | 6.0 | 11.0 | 0.00 | 0.00 | 0.00 | 29 | 1022.3 |
| 20260905175134 | 87 | 60 | 6.0 | 11.0 | 0.00 | 0.00 | 0.00 | 29 | 1022.4 |
| 20260905175101 | 87 | 133 | 6.0 | 11.0 | 0.00 | 0.00 | 0.00 | 29 | 1022.4 |
| 20260905175002 | 87 | 115 | 6.0 | 11.0 | 0.00 | 0.00 | 0.00 | 27 | 1022.4 |
| 20260905174902 | 87 | 120 | 6.0 | 11.0 | 0.00 | 0.00 | 0.00 | 28 | 1022.4 |
| 20260905174802 | 87 | 143 | 6.0 | 9.0 | 0.00 | 0.00 | 0.00 | 28 | 1022.4 |
| 20260905174717 | 87 | 76 | 6.0 | 9.0 | 0.00 | 0.00 | 0.00 | 28 | 1022.3 |
| 20260905174713 | 87 | 68 | 5.0 | 9.0 | 0.00 | 0.00 | 0.00 | 28 | 1022.4 |